Laatste waarneming: 05:49
Temperatuur:10,3°C
Dauwpunt:6,0°C
Rel. vocht:74,6%
Natte-bol:8,4°C
Wind (gem. 10 min.):6,1 m/s
Wind (max. 10 min.): m/s
Windrichting:274°
Neerslagsom:0,0 mm
Neerslagintensiteit:0,0 mm/u
Luchtdruk:1023,9 hPa
Straling:0,0 W/m2
 
Maximumtemp.:10,6°C (04:15)
Minimumtemp.:10,1°C (00:13)
Hoogste windstoot:- m/s (12:30)


Bekijk het Grafiekoverzicht.
Bekijk het Maandoverzicht.
Dagtabel
Tijd Temp. Dauwp. Natte-bol Rel. Hum. Windsnelh. Windricht. Windstoot Neerslag Straling Luchtdruk
 
05:49 10,3 6,0 8,4 74,6 6,1 274 - 0,0 0 1.023,9
05:48 10,3 6,1 8,4 75,0 6,2 274 - 0,0 0 1.023,9
05:47 10,3 5,9 8,3 74,3 6,2 274 - 0,0 0 1.023,9
05:46 10,3 6,0 8,4 74,9 6,3 275 - 0,0 0 1.023,9
05:45 10,3 6,0 8,4 74,9 6,3 275 - 0,0 0 1.023,9
05:44 10,3 5,9 8,3 74,0 6,4 275 - 0,0 0 1.023,9
05:43 10,3 5,9 8,3 74,0 6,5 275 - 0,0 0 1.023,9
05:42 10,3 5,9 8,3 74,0 6,6 275 - 0,0 0 1.023,8
05:41 10,3 5,9 8,3 74,0 6,6 275 - 0,0 0 1.023,8
05:40 10,3 5,9 8,3 74,0 6,7 275 - 0,0 0 1.023,8
05:39 10,3 5,9 8,3 74,2 6,7 275 - 0,0 0 1.023,8
05:38 10,3 6,1 8,4 75,0 6,6 275 - 0,0 0 1.023,8
05:37 10,4 6,2 8,5 75,0 6,5 275 - 0,0 0 1.023,8
05:36 10,4 6,2 8,5 75,0 6,5 275 - 0,0 0 1.023,8
05:35 10,4 6,2 8,5 75,0 6,5 275 - 0,0 0 1.023,8
05:34 10,4 6,2 8,5 75,0 6,6 275 - 0,0 0 1.023,7
05:32 10,3 5,9 8,3 74,0 6,7 275 - 0,0 0 1.023,7
05:31 10,4 6,0 8,4 74,0 6,8 275 - 0,0 0 1.023,8
05:30 10,4 6,1 8,5 74,7 6,8 275 - 0,0 0 1.023,8
05:29 10,4 6,2 8,5 75,0 6,8 275 - 0,0 0 1.023,8
05:28 10,4 6,0 8,4 74,1 6,8 275 - 0,0 0 1.023,7
05:27 10,4 5,9 8,4 73,7 6,8 275 - 0,0 0 1.023,7
05:26 10,3 5,7 8,2 73,0 6,8 276 - 0,0 0 1.023,7
05:25 10,4 5,9 8,4 73,6 6,9 276 - 0,0 0 1.023,7
05:24 10,4 6,0 8,4 74,0 7,0 276 - 0,0 0 1.023,7
05:23 10,4 6,1 8,5 74,8 7,1 277 - 0,0 0 1.023,7
05:22 10,4 6,0 8,4 74,0 7,1 277 - 0,0 0 1.023,7
05:21 10,4 5,9 8,4 73,6 7,1 277 - 0,0 0 1.023,7
05:20 10,5 6,3 8,6 75,0 7,0 278 - 0,0 0 1.023,7
05:19 10,5 6,1 8,5 74,3 7,0 278 - 0,0 0 1.023,7
05:18 10,4 5,8 8,3 73,3 7,0 279 - 0,0 0 1.023,7
05:17 10,4 5,9 8,4 73,9 6,9 279 - 0,0 0 1.023,6
05:16 10,4 6,0 8,4 74,2 6,9 280 - 0,0 0 1.023,6
05:15 10,4 6,2 8,5 75,0 6,8 280 - 0,0 0 1.023,7
05:14 10,4 6,2 8,5 75,0 6,7 281 - 0,0 0 1.023,7
05:13 10,4 6,2 8,5 75,0 6,5 282 - 0,0 0 1.023,7
05:12 10,4 6,2 8,5 75,0 6,3 282 - 0,0 0 1.023,8
05:11 10,4 6,2 8,5 75,0 6,1 283 - 0,0 0 1.023,8
05:10 10,5 6,3 8,6 75,0 6,0 283 - 0,0 0 1.023,8
05:09 10,5 6,2 8,6 74,7 6,0 283 - 0,0 0 1.023,8
05:08 10,5 6,0 8,4 73,6 6,0 284 - 0,0 0 1.023,8
05:07 10,4 5,8 8,3 73,0 6,0 284 - 0,0 0 1.023,8
05:06 10,4 5,8 8,3 73,0 6,1 284 - 0,0 0 1.023,8
05:05 10,4 5,8 8,3 73,1 6,1 284 - 0,0 0 1.023,7
05:04 10,4 6,0 8,4 74,0 6,1 284 - 0,0 0 1.023,7
05:03 10,4 5,9 8,4 73,7 6,1 284 - 0,0 0 1.023,7
05:02 10,4 5,9 8,3 73,5 6,1 284 - 0,0 0 1.023,7
05:01 10,4 6,0 8,4 74,0 6,0 284 - 0,0 0 1.023,6
05:00 10,4 6,0 8,4 74,0 6,0 284 - 0,0 0 1.023,6
 
04:59 10,4 6,2 8,5 75,0 6,0 284 - 0,0 0 1.023,6
04:58 10,4 6,4 8,6 76,0 6,0 283 - 0,0 0 1.023,7
04:57 10,4 6,3 8,6 75,7 6,0 283 - 0,0 0 1.023,7
04:56 10,4 6,2 8,5 75,0 6,0 283 - 0,0 0 1.023,7
04:55 10,4 6,0 8,4 74,4 6,0 283 - 0,0 0 1.023,7
04:54 10,4 6,1 8,5 74,8 6,0 284 - 0,0 0 1.023,7
04:53 10,4 6,2 8,5 75,0 6,1 284 - 0,0 0 1.023,7
04:52 10,4 6,0 8,4 74,2 6,0 284 - 0,0 0 1.023,7
04:51 10,4 6,2 8,5 75,0 6,0 285 - 0,0 0 1.023,7
04:50 10,5 6,4 8,6 75,5 5,9 285 - 0,0 0 1.023,7
04:49 10,5 6,3 8,6 75,4 5,8 285 - 0,0 0 1.023,7
04:48 10,5 6,3 8,6 75,0 5,7 285 - 0,0 0 1.023,6
04:47 10,5 6,2 8,6 74,9 5,5 286 - 0,0 0 1.023,6
04:46 10,5 6,1 8,5 74,3 5,4 286 - 0,0 0 1.023,7
04:45 10,5 6,2 8,5 74,6 5,4 286 - 0,0 0 1.023,7
04:44 10,5 6,0 8,4 73,5 5,4 286 - 0,0 0 1.023,7
04:43 10,5 5,9 8,4 73,0 5,5 286 - 0,0 0 1.023,7
04:42 10,4 5,6 8,2 72,2 5,7 286 - 0,0 0 1.023,7
04:41 10,4 5,7 8,3 72,9 5,9 286 - 0,0 0 1.023,6
04:40 10,4 5,6 8,2 72,0 6,1 285 - 0,0 0 1.023,6
04:39 10,4 5,6 8,2 72,0 6,3 285 - 0,0 0 1.023,5
04:38 10,4 5,6 8,2 72,0 6,5 284 - 0,0 0 1.023,5
04:37 10,4 5,7 8,3 72,7 6,6 284 - 0,0 0 1.023,5
04:36 10,4 5,8 8,3 73,0 6,6 283 - 0,0 0 1.023,4
04:35 10,4 5,7 8,3 72,9 6,6 283 - 0,0 0 1.023,4
04:34 10,4 5,6 8,2 72,3 6,5 282 - 0,0 0 1.023,4
04:33 10,4 5,8 8,3 73,0 6,3 282 - 0,0 0 1.023,4
04:32 10,5 6,1 8,5 74,1 6,2 281 - 0,0 0 1.023,3
04:31 10,5 6,0 8,4 73,6 6,2 281 - 0,0 0 1.023,3
04:30 10,5 5,9 8,4 73,0 6,2 281 - 0,0 0 1.023,3
04:29 10,5 5,9 8,4 73,0 6,2 281 - 0,0 0 1.023,3
04:28 10,4 5,8 8,3 73,0 6,2 281 - 0,0 0 1.023,4
04:27 10,4 5,8 8,3 73,0 6,2 280 - 0,0 0 1.023,5
04:26 10,4 5,8 8,3 73,0 6,2 280 - 0,0 0 1.023,5
04:25 10,5 6,2 8,5 74,5 6,2 280 - 0,0 0 1.023,5
04:24 10,5 6,3 8,6 75,0 6,1 279 - 0,0 0 1.023,5
04:23 10,6 6,4 8,7 75,0 6,0 279 - 0,0 0 1.023,5
04:22 10,6 6,4 8,7 75,0 6,0 279 - 0,0 0 1.023,5
04:21 10,6 6,2 8,6 74,1 6,2 279 - 0,0 0 1.023,5
04:20 10,5 5,7 8,3 72,4 6,4 279 - 0,0 0 1.023,5
04:19 10,5 5,8 8,4 72,8 6,5 279 - 0,0 0 1.023,4
04:18 10,5 6,1 8,5 74,0 6,6 279 - 0,0 0 1.023,4
04:17 10,6 6,4 8,7 75,0 6,7 279 - 0,0 0 1.023,4
04:16 10,5 6,1 8,5 74,3 6,8 279 - 0,0 0 1.023,4
04:15 10,6 6,1 8,5 73,5 6,7 279 - 0,0 0 1.023,5
04:14 10,5 6,2 8,6 74,7 6,6 278 - 0,0 0 1.023,5
04:13 10,5 6,1 8,5 74,2 6,7 278 - 0,0 0 1.023,6
04:12 10,5 6,1 8,5 74,0 6,7 278 - 0,0 0 1.023,6
04:11 10,4 6,0 8,4 74,0 6,8 278 - 0,0 0 1.023,6
04:10 10,4 6,0 8,4 74,4 6,8 278 - 0,0 0 1.023,6
04:09 10,5 6,4 8,6 75,5 6,7 279 - 0,0 0 1.023,7
04:08 10,5 6,3 8,6 75,4 6,6 279 - 0,0 0 1.023,7
04:07 10,5 6,3 8,6 75,0 6,6 279 - 0,0 0 1.023,6
04:06 10,5 6,1 8,5 74,2 6,5 279 - 0,0 0 1.023,6
04:05 10,4 6,1 8,5 74,8 6,4 279 - 0,0 0 1.023,6
04:04 10,4 6,0 8,4 74,0 6,4 278 - 0,0 0 1.023,5
04:03 10,3 5,9 8,3 74,0 6,5 278 - 0,0 0 1.023,5
04:02 10,3 6,0 8,4 74,9 6,5 278 - 0,0 0 1.023,5
04:01 10,3 6,1 8,4 75,0 6,6 277 - 0,0 0 1.023,5
04:00 10,3 6,1 8,4 75,0 6,6 277 - 0,0 0 1.023,5
 
03:59 10,3 6,1 8,4 75,3 6,6 276 - 0,0 0 1.023,5
03:58 10,3 6,2 8,5 75,6 6,6 275 - 0,0 0 1.023,5
03:57 10,3 6,2 8,5 75,6 6,5 275 - 0,0 0 1.023,5
03:56 10,3 6,3 8,5 76,0 6,5 275 - 0,0 0 1.023,5
03:55 10,3 6,4 8,6 76,7 6,3 274 - 0,0 0 1.023,4
03:54 10,3 6,3 8,5 76,1 6,2 274 - 0,0 0 1.023,4
03:53 10,3 6,3 8,5 76,0 6,2 273 - 0,0 0 1.023,4
03:52 10,3 6,3 8,5 76,0 6,2 272 - 0,0 0 1.023,4
03:51 10,3 6,3 8,5 76,0 6,1 271 - 0,0 0 1.023,4
03:50 10,3 6,4 8,6 76,7 6,2 270 - 0,0 0 1.023,4
03:49 10,3 6,3 8,5 76,2 6,2 269 - 0,0 0 1.023,4
03:48 10,3 6,3 8,5 76,0 6,3 269 - 0,0 0 1.023,4
03:47 10,3 6,2 8,5 75,7 6,3 268 - 0,0 0 1.023,4
03:46 10,3 6,1 8,4 75,0 6,4 267 - 0,0 0 1.023,4
03:45 10,3 6,2 8,5 75,6 6,4 267 - 0,0 0 1.023,4
03:44 10,3 6,3 8,5 76,0 6,3 267 - 0,0 0 1.023,4
03:43 10,3 6,3 8,5 76,0 6,3 266 - 0,0 0 1.023,4
03:42 10,2 6,2 8,4 76,0 6,2 266 - 0,0 0 1.023,4
03:41 10,2 6,2 8,4 76,0 6,2 266 - 0,0 0 1.023,3
03:40 10,2 6,2 8,4 76,0 6,1 265 - 0,0 0 1.023,3
03:39 10,2 6,2 8,4 76,0 6,0 265 - 0,0 0 1.023,4
03:38 10,2 6,2 8,4 76,0 5,9 265 - 0,0 0 1.023,4
03:37 10,2 6,2 8,4 76,0 5,7 264 - 0,0 0 1.023,4
03:36 10,2 6,2 8,4 76,2 5,6 264 - 0,0 0 1.023,4
03:35 10,2 6,3 8,5 77,0 5,4 263 - 0,0 0 1.023,4
03:34 10,3 6,3 8,5 76,5 5,4 263 - 0,0 0 1.023,4
03:33 10,2 6,2 8,4 76,0 5,3 262 - 0,0 0 1.023,4
03:32 10,2 6,2 8,4 76,0 5,3 262 - 0,0 0 1.023,3
03:31 10,3 6,3 8,5 76,0 5,3 262 - 0,0 0 1.023,3
03:30 10,3 6,3 8,5 76,0 5,2 263 - 0,0 0 1.023,3
03:29 10,3 6,3 8,5 76,4 5,2 263 - 0,0 0 1.023,3
03:28 10,4 6,5 8,7 77,0 5,1 263 - 0,0 0 1.023,3
03:27 10,4 6,5 8,7 77,0 5,2 264 - 0,0 0 1.023,3
03:26 10,4 6,4 8,6 76,2 5,2 264 - 0,0 0 1.023,3
03:25 10,4 6,4 8,6 76,0 5,3 265 - 0,0 0 1.023,3
03:24 10,4 6,3 8,6 75,8 5,4 265 - 0,0 0 1.023,3
03:23 10,4 6,1 8,5 74,6 5,6 266 - 0,0 0 1.023,3
03:22 10,3 5,9 8,3 74,0 5,8 267 - 0,0 0 1.023,3
03:21 10,3 5,9 8,3 74,0 5,9 267 - 0,0 0 1.023,2
03:20 10,3 5,9 8,3 74,0 6,0 268 - 0,0 0 1.023,2
03:19 10,3 5,7 8,2 73,2 5,9 269 - 0,0 0 1.023,2
03:18 10,4 6,0 8,4 74,0 5,9 270 - 0,0 0 1.023,1
03:17 10,4 6,0 8,4 74,0 5,9 270 - 0,0 0 1.023,2
03:16 10,4 5,9 8,3 73,5 5,8 271 - 0,0 0 1.023,2
03:15 10,4 5,9 8,4 73,7 5,8 272 - 0,0 0 1.023,1
03:14 10,4 6,0 8,4 74,0 5,7 273 - 0,0 0 1.023,1
03:13 10,4 6,1 8,5 74,8 5,7 273 - 0,0 0 1.023,2
03:12 10,4 5,9 8,4 73,7 5,7 274 - 0,0 0 1.023,2
03:11 10,4 5,8 8,3 73,0 5,6 274 - 0,0 0 1.023,2
03:10 10,4 5,8 8,3 73,0 5,6 274 - 0,0 0 1.023,2
03:09 10,4 5,9 8,4 73,7 5,5 275 - 0,0 0 1.023,2
03:08 10,4 6,0 8,4 74,0 5,6 275 - 0,0 0 1.023,1
03:07 10,4 6,0 8,4 74,0 5,6 275 - 0,0 0 1.023,1
03:06 10,4 6,0 8,4 74,0 5,6 276 - 0,0 0 1.023,2
03:05 10,4 6,0 8,4 74,0 5,6 276 - 0,0 0 1.023,2
03:04 10,4 6,1 8,5 74,6 5,6 277 - 0,0 0 1.023,2
03:03 10,4 6,3 8,6 75,8 5,6 277 - 0,0 0 1.023,3
03:02 10,4 6,2 8,5 75,1 5,5 278 - 0,0 0 1.023,3
03:01 10,4 6,2 8,5 75,3 5,3 278 - 0,0 0 1.023,3
03:00 10,4 6,5 8,7 76,7 5,1 279 - 0,0 0 1.023,3
 
02:59 10,4 6,4 8,6 76,0 4,9 279 - 0,0 0 1.023,3
02:58 10,4 6,2 8,5 75,4 4,8 280 - 0,0 0 1.023,3
02:57 10,4 6,2 8,5 75,0 4,8 280 - 0,0 0 1.023,2
02:56 10,4 6,0 8,4 74,1 4,8 280 - 0,0 0 1.023,2
02:55 10,4 6,0 8,4 74,0 5,1 281 - 0,0 0 1.023,2
02:54 10,3 5,9 8,3 74,0 5,3 282 - 0,0 0 1.023,2
02:53 10,3 6,0 8,3 74,5 5,5 282 - 0,0 0 1.023,2
02:52 10,3 6,1 8,4 75,0 5,5 283 - 0,0 0 1.023,2
02:51 10,3 6,1 8,4 75,0 5,6 283 - 0,0 0 1.023,2
02:50 10,3 6,1 8,4 75,0 5,5 284 - 0,0 0 1.023,2
02:49 10,3 6,1 8,4 75,0 5,4 284 - 0,0 0 1.023,2
02:48 10,3 6,1 8,4 75,4 5,2 284 - 0,0 0 1.023,2
02:47 10,3 6,3 8,5 76,0 5,1 285 - 0,0 0 1.023,2
02:46 10,3 6,1 8,4 75,4 5,1 285 - 0,0 0 1.023,3
02:45 10,3 6,2 8,5 75,8 5,0 285 - 0,0 0 1.023,3
02:44 10,3 6,3 8,5 76,0 5,0 285 - 0,0 0 1.023,2
02:43 10,3 6,2 8,5 75,8 5,2 285 - 0,0 0 1.023,2
02:42 10,3 6,1 8,4 75,0 5,3 284 - 0,0 0 1.023,2
02:41 10,3 6,0 8,3 74,5 5,5 284 - 0,0 0 1.023,2
02:40 10,3 6,1 8,4 75,3 5,6 284 - 0,0 0 1.023,2
02:39 10,3 6,3 8,5 76,0 5,5 284 - 0,0 0 1.023,2
02:38 10,3 6,4 8,6 77,0 5,5 284 - 0,0 0 1.023,2
02:37 10,4 6,5 8,7 76,8 5,5 284 - 0,0 0 1.023,2
02:36 10,4 6,4 8,6 76,0 5,4 283 - 0,0 0 1.023,2
02:35 10,3 6,3 8,5 76,0 5,3 283 - 0,0 0 1.023,2
02:34 10,3 6,3 8,5 76,0 5,4 283 - 0,0 0 1.023,2
02:33 10,3 6,1 8,4 75,2 5,6 283 - 0,0 0 1.023,2
02:32 10,3 6,1 8,4 75,0 5,8 283 - 0,0 0 1.023,2
02:31 10,3 6,1 8,4 75,0 6,0 283 - 0,0 0 1.023,2
02:30 10,3 6,1 8,4 75,4 6,2 282 - 0,0 0 1.023,2
02:29 10,3 6,4 8,6 76,6 6,3 282 - 0,0 0 1.023,2
02:28 10,3 6,4 8,6 77,0 6,3 282 - 0,0 0 1.023,2
02:27 10,3 6,4 8,6 77,0 6,3 282 - 0,0 0 1.023,2
02:26 10,3 6,6 8,7 78,0 6,1 283 - 0,0 0 1.023,2
02:25 10,3 6,7 8,7 78,3 5,9 283 - 0,0 0 1.023,3
02:24 10,3 6,8 8,8 79,0 5,7 283 - 0,0 0 1.023,3
02:23 10,3 6,7 8,7 78,4 5,5 284 - 0,0 0 1.023,3
02:22 10,2 6,5 8,6 78,0 5,4 284 - 0,0 0 1.023,3
02:21 10,3 6,6 8,7 78,0 5,2 285 - 0,0 0 1.023,3
02:20 10,2 6,5 8,6 78,0 5,1 286 - 0,0 0 1.023,3
02:19 10,3 6,7 8,7 78,3 5,1 286 - 0,0 0 1.023,3
02:18 10,3 6,8 8,8 79,0 5,0 287 - 0,0 0 1.023,3
02:17 10,3 6,8 8,8 79,0 5,0 287 - 0,0 0 1.023,3
02:16 10,3 6,7 8,7 78,3 5,0 288 - 0,0 0 1.023,2
02:15 10,3 6,5 8,6 77,1 5,0 288 - 0,0 0 1.023,3
02:14 10,2 6,3 8,5 77,0 5,1 288 - 0,0 0 1.023,3
02:13 10,3 6,4 8,6 77,0 5,2 289 - 0,0 0 1.023,3
02:12 10,3 6,4 8,6 77,0 5,3 289 - 0,0 0 1.023,3
02:11 10,3 6,4 8,6 77,0 5,4 289 - 0,0 0 1.023,3
02:10 10,3 6,3 8,5 76,2 5,6 289 - 0,0 0 1.023,3
02:09 10,3 6,3 8,5 76,1 5,8 288 - 0,0 0 1.023,3
02:08 10,3 6,4 8,6 77,0 5,9 288 - 0,0 0 1.023,3
02:07 10,3 6,4 8,6 77,0 5,9 287 - 0,0 0 1.023,3
02:06 10,3 6,5 8,6 77,5 5,9 287 - 0,0 0 1.023,3
02:05 10,3 6,5 8,6 77,3 5,9 286 - 0,0 0 1.023,3
02:04 10,3 6,4 8,6 77,0 5,8 285 - 0,0 0 1.023,3
02:03 10,3 6,4 8,6 77,0 5,8 284 - 0,0 0 1.023,3
02:02 10,3 6,4 8,6 76,8 5,9 283 - 0,0 0 1.023,3
02:01 10,2 6,2 8,4 76,0 6,0 282 - 0,0 0 1.023,2
02:00 10,2 6,3 8,5 76,6 6,2 281 - 0,0 0 1.023,2
 
01:59 10,2 6,2 8,4 76,4 6,2 280 - 0,0 0 1.023,2
01:58 10,2 6,3 8,5 76,8 6,2 279 - 0,0 0 1.023,2
01:57 10,2 6,4 8,5 77,2 6,1 278 - 0,0 0 1.023,2
01:55 10,3 6,8 8,8 79,0 5,9 278 - 0,0 0 1.023,2
01:54 10,3 6,6 8,7 77,9 5,8 277 - 0,0 0 1.023,3
01:53 10,3 6,4 8,6 77,0 5,7 277 - 0,0 0 1.023,3
01:52 10,2 6,3 8,5 77,0 5,7 276 - 0,0 0 1.023,2
01:51 10,2 6,4 8,5 77,2 5,7 276 - 0,0 0 1.023,2
01:50 10,2 6,5 8,6 77,7 5,7 276 - 0,0 0 1.023,2
01:49 10,2 6,4 8,5 77,4 5,8 276 - 0,0 0 1.023,2
01:48 10,3 6,7 8,7 78,6 5,8 276 - 0,0 0 1.023,2
01:47 10,3 6,7 8,7 78,3 5,7 276 - 0,0 0 1.023,2
01:46 10,3 6,8 8,8 78,8 5,6 276 - 0,0 0 1.023,2
01:45 10,2 6,6 8,6 78,1 5,5 277 - 0,0 0 1.023,2
01:44 10,2 6,5 8,6 78,0 5,5 277 - 0,0 0 1.023,2
01:43 10,2 6,5 8,6 78,0 5,4 277 - 0,0 0 1.023,2
01:42 10,2 6,5 8,6 78,0 5,4 278 - 0,0 0 1.023,2
01:41 10,2 6,4 8,5 77,3 5,4 278 - 0,0 0 1.023,1
01:40 10,2 6,4 8,5 77,1 5,4 278 - 0,0 0 1.023,1
01:39 10,2 6,5 8,6 77,9 5,6 278 - 0,0 0 1.023,1
01:38 10,2 6,3 8,5 76,7 5,7 278 - 0,0 0 1.023,1
01:37 10,2 6,3 8,5 76,9 5,8 278 - 0,0 0 1.023,1
01:36 10,2 6,5 8,6 78,0 5,9 278 - 0,0 0 1.023,1
01:35 10,2 6,5 8,6 78,0 5,9 278 - 0,0 0 1.023,0
01:34 10,2 6,5 8,6 77,9 5,9 278 - 0,0 0 1.023,0
01:33 10,2 6,4 8,5 77,4 5,8 278 - 0,0 0 1.023,0
01:32 10,2 6,6 8,6 78,5 5,8 278 - 0,0 0 1.023,0
01:31 10,2 6,4 8,5 77,4 5,8 278 - 0,0 0 1.023,0
01:30 10,2 6,3 8,5 77,0 5,8 278 - 0,0 0 1.023,0
01:29 10,2 6,5 8,6 77,8 5,8 279 - 0,0 0 1.023,0
01:28 10,2 6,4 8,5 77,1 5,9 279 - 0,0 0 1.023,0
01:27 10,2 6,3 8,5 77,0 5,9 280 - 0,0 0 1.023,0
01:26 10,2 6,3 8,5 77,0 5,8 280 - 0,0 0 1.022,9
01:25 10,2 6,3 8,5 77,0 5,7 280 - 0,0 0 1.022,9
01:24 10,2 6,3 8,5 77,0 5,7 281 - 0,0 0 1.022,9
01:23 10,2 6,3 8,5 77,0 5,7 281 - 0,0 0 1.022,9
01:22 10,2 6,3 8,5 77,0 5,7 282 - 0,0 0 1.022,9
01:21 10,2 6,3 8,5 77,0 5,7 283 - 0,0 0 1.023,0
01:20 10,2 6,3 8,5 77,0 5,6 283 - 0,0 0 1.022,9
01:19 10,2 6,3 8,5 77,0 5,6 284 - 0,0 0 1.022,9
01:18 10,2 6,3 8,5 77,0 5,6 285 - 0,0 0 1.022,9
01:17 10,2 6,3 8,5 77,0 5,4 286 - 0,0 0 1.022,9
01:16 10,2 6,3 8,5 77,0 5,3 287 - 0,0 0 1.022,9
01:14 10,2 6,2 8,4 76,0 5,2 287 - 0,0 0 1.022,9
01:13 10,1 6,1 8,3 76,0 5,1 288 - 0,0 0 1.022,8
01:12 10,2 6,3 8,5 76,7 5,1 288 - 0,0 0 1.022,8
01:11 10,2 6,3 8,5 77,0 5,1 289 - 0,0 0 1.022,8
01:10 10,2 6,3 8,5 77,0 5,1 289 - 0,0 0 1.022,8
01:09 10,2 6,3 8,5 77,0 5,1 289 - 0,0 0 1.022,8
01:08 10,2 6,3 8,5 77,0 5,0 290 - 0,0 0 1.022,8
01:07 10,2 6,3 8,5 77,0 5,1 290 - 0,0 0 1.022,8
01:06 10,2 6,3 8,5 77,0 5,1 290 - 0,0 0 1.022,8
01:05 10,2 6,3 8,5 77,0 5,2 290 - 0,0 0 1.022,7
01:04 10,2 6,3 8,5 77,0 5,3 290 - 0,0 0 1.022,7
01:03 10,1 6,2 8,4 77,0 5,4 290 - 0,0 0 1.022,7
01:02 10,1 6,2 8,4 77,0 5,4 289 - 0,0 0 1.022,7
01:01 10,2 6,3 8,5 77,0 5,5 289 - 0,0 0 1.022,7
01:00 10,1 6,2 8,4 77,0 5,5 288 - 0,0 0 1.022,7
 
00:59 10,1 6,4 8,5 77,9 5,5 288 - 0,0 0 1.022,7
00:58 10,2 6,5 8,6 78,0 5,4 287 - 0,0 0 1.022,7
00:57 10,2 6,5 8,6 78,0 5,5 287 - 0,0 0 1.022,7
00:56 10,2 6,5 8,6 78,0 5,6 286 - 0,0 0 1.022,7
00:55 10,2 6,4 8,5 77,4 5,7 285 - 0,0 0 1.022,7
00:54 10,2 6,5 8,6 77,8 5,7 284 - 0,0 0 1.022,7
00:53 10,2 6,5 8,6 78,0 5,7 283 - 0,0 0 1.022,7
00:52 10,2 6,5 8,6 78,0 5,8 282 - 0,0 0 1.022,7
00:51 10,2 6,5 8,6 77,7 5,9 280 - 0,0 0 1.022,7
00:50 10,1 6,2 8,4 77,0 5,9 279 - 0,0 0 1.022,7
00:49 10,1 6,4 8,5 77,7 5,9 278 - 0,0 0 1.022,6
00:48 10,1 6,4 8,5 78,0 5,9 277 - 0,0 0 1.022,7
00:47 10,1 6,4 8,5 78,0 6,0 275 - 0,0 0 1.022,7
00:46 10,1 6,5 8,5 78,2 6,1 274 - 0,0 0 1.022,6
00:45 10,1 6,6 8,6 78,7 6,2 273 - 0,0 0 1.022,6
00:44 10,1 6,4 8,5 78,0 6,2 272 - 0,0 0 1.022,6
00:43 10,1 6,4 8,5 78,0 6,1 271 - 0,0 0 1.022,6
00:42 10,1 6,4 8,5 78,0 6,1 271 - 0,0 0 1.022,6
00:41 10,1 6,6 8,6 79,0 6,0 270 - 0,0 0 1.022,5
00:40 10,2 6,7 8,7 79,0 5,8 269 - 0,0 0 1.022,5
00:39 10,2 6,7 8,7 79,0 5,6 269 - 0,0 0 1.022,5
00:38 10,2 6,7 8,7 79,0 5,5 269 - 0,0 0 1.022,5
00:37 10,3 6,7 8,7 78,4 5,5 269 - 0,0 0 1.022,5
00:36 10,3 6,6 8,7 78,0 5,5 270 - 0,0 0 1.022,5
00:35 10,3 6,6 8,7 77,9 5,6 270 - 0,0 0 1.022,4
00:34 10,3 6,4 8,6 76,8 5,7 271 - 0,0 0 1.022,4
00:33 10,2 6,2 8,4 76,0 5,7 272 - 0,0 0 1.022,4
00:32 10,2 6,3 8,5 76,6 5,8 273 - 0,0 0 1.022,4
00:31 10,3 6,4 8,6 77,0 5,8 275 - 0,0 0 1.022,4
00:30 10,3 6,4 8,6 77,0 5,7 276 - 0,0 0 1.022,4
00:29 10,2 6,3 8,5 76,9 5,4 278 - 0,0 0 1.022,4
00:28 10,2 6,2 8,4 76,0 5,1 279 - 0,0 0 1.022,4
00:27 10,2 6,2 8,4 76,0 4,9 281 - 0,0 0 1.022,4
00:26 10,2 6,1 8,3 75,5 4,7 282 - 0,0 0 1.022,4
00:25 10,1 6,0 8,3 75,7 4,6 284 - 0,0 0 1.022,4
00:24 10,1 6,1 8,3 76,0 4,6 285 - 0,0 0 1.022,4
00:23 10,2 6,2 8,4 76,0 4,7 287 - 0,0 0 1.022,4
00:22 10,1 6,1 8,3 76,0 4,7 288 - 0,0 0 1.022,4
00:21 10,1 6,1 8,3 76,0 4,7 290 - 0,0 0 1.022,3
00:20 10,1 6,1 8,3 76,0 4,7 291 - 0,0 0 1.022,3
00:19 10,1 6,1 8,3 76,0 4,6 293 - 0,0 0 1.022,3
00:18 10,1 6,1 8,3 76,0 4,6 294 - 0,0 0 1.022,3
00:17 10,1 6,1 8,3 76,0 4,5 295 - 0,0 0 1.022,3
00:16 10,1 6,1 8,3 76,0 4,4 296 - 0,0 0 1.022,3
00:15 10,1 6,1 8,3 76,0 4,4 297 - 0,0 0 1.022,3
00:14 10,1 6,1 8,3 76,0 4,4 297 - 0,0 0 1.022,3
00:13 10,1 6,1 8,3 76,0 4,4 298 - 0,0 0 1.022,3
00:12 10,2 6,2 8,4 76,0 4,4 298 - 0,0 0 1.022,3
00:11 10,2 6,2 8,4 76,0 4,5 299 - 0,0 0 1.022,3
00:10 10,2 6,2 8,4 76,0 4,5 299 - 0,0 0 1.022,2
00:09 10,2 6,2 8,4 76,0 4,5 299 - 0,0 0 1.022,2
00:08 10,2 6,2 8,4 76,0 4,6 299 - 0,0 0 1.022,2
00:07 10,2 6,2 8,4 76,0 4,6 300 - 0,0 0 1.022,3
00:06 10,2 6,2 8,4 76,0 4,7 300 - 0,0 0 1.022,2
00:05 10,2 6,2 8,4 76,0 4,8 300 - 0,0 0 1.022,2
00:04 10,2 6,1 8,4 75,7 4,8 300 - 0,0 0 1.022,2
00:03 10,2 6,1 8,3 75,5 4,9 299 - 0,0 0 1.022,2
00:02 10,2 6,0 8,3 75,4 4,9 299 - 0,0 0 1.022,2
00:01 10,2 6,0 8,3 75,0 4,8 299 - 0,0 0 1.022,2
00:00 10,2 6,2 8,4 76,1 4,8 298 - 0,2 0 1.022,2
 
23:59 10,2 6,3 8,5 76,8 4,7 298 - 0,2 0 1.022,2
23:58 10,2 6,2 8,4 76,0 4,6 297 - 0,2 0 1.022,2
23:57 10,2 6,2 8,4 76,0 4,6 297 - 0,2 0 1.022,1
23:56 10,3 6,4 8,6 76,7 4,6 296 - 0,2 0 1.022,1
23:55 10,3 6,3 8,5 76,2 4,7 296 - 0,2 0 1.022,1
23:54 10,2 6,1 8,4 75,9 4,7 296 - 0,2 0 1.022,1
23:53 10,2 6,0 8,3 75,0 4,8 296 - 0,2 0 1.022,1
23:52 10,2 6,0 8,3 75,4 4,8 295 - 0,2 0 1.022,0
23:51 10,2 6,1 8,3 75,5 4,9 295 - 0,2 0 1.022,0
23:50 10,2 5,8 8,2 74,3 5,0 295 - 0,2 0 1.022,0
23:49 10,2 5,8 8,2 74,0 5,1 295 - 0,2 0 1.021,9
23:48 10,2 5,8 8,2 74,0 5,1 295 - 0,2 0 1.021,9
23:47 10,2 5,9 8,3 74,6 5,1 295 - 0,2 0 1.021,9
23:46 10,2 6,1 8,4 75,6 5,0 295 - 0,2 0 1.021,9
23:45 10,2 5,9 8,3 74,5 5,0 295 - 0,2 0 1.022,0
23:44 10,2 5,8 8,2 74,0 5,0 295 - 0,2 0 1.022,0
23:43 10,2 5,8 8,2 74,0 5,0 295 - 0,2 0 1.022,0
23:42 10,2 6,0 8,3 75,0 5,0 295 - 0,2 0 1.022,0
23:41 10,2 5,9 8,3 74,7 5,1 295 - 0,2 0 1.022,0
23:40 10,2 5,9 8,3 74,5 5,2 294 - 0,2 0 1.022,0
23:39 10,2 6,1 8,4 75,6 5,1 294 - 0,2 0 1.022,0
23:38 10,3 6,3 8,5 76,0 5,1 294 - 0,2 0 1.022,0
23:37 10,3 6,3 8,5 76,0 5,1 294 - 0,2 0 1.021,9
23:36 10,3 6,0 8,4 74,9 5,2 294 - 0,2 0 1.021,9
23:35 10,2 5,8 8,2 74,0 5,2 294 - 0,2 0 1.021,9
23:34 10,3 6,0 8,3 74,5 5,2 293 - 0,2 0 1.021,8
23:33 10,3 5,9 8,3 74,4 5,4 293 - 0,2 0 1.021,8
23:32 10,3 5,9 8,3 74,0 5,5 293 - 0,2 0 1.021,8
23:31 10,3 5,9 8,3 74,0 5,6 293 - 0,2 0 1.021,8
23:30 10,3 5,7 8,2 73,2 5,7 293 - 0,2 0 1.021,8
23:29 10,3 5,9 8,3 74,4 5,7 293 - 0,2 0 1.021,8
23:28 10,3 6,0 8,3 74,5 5,6 294 - 0,2 0 1.021,8
23:27 10,3 5,9 8,3 74,0 5,5 294 - 0,2 0 1.021,8
23:26 10,3 6,0 8,4 74,8 5,4 294 - 0,2 0 1.021,7
23:25 10,3 6,1 8,4 75,0 5,3 295 - 0,2 0 1.021,7
23:24 10,3 6,1 8,4 75,2 5,3 295 - 0,2 0 1.021,8
23:23 10,3 6,2 8,5 75,7 5,3 296 - 0,2 0 1.021,8
23:22 10,3 6,0 8,3 74,5 5,3 297 - 0,2 0 1.021,7
23:21 10,3 6,1 8,4 75,3 5,3 297 - 0,2 0 1.021,6
23:20 10,4 6,4 8,6 76,0 5,3 298 - 0,2 0 1.021,6
23:19 10,4 6,2 8,5 75,1 5,3 298 - 0,2 0 1.021,6
23:18 10,3 6,1 8,4 75,0 5,3 298 - 0,2 0 1.021,6
23:17 10,3 6,1 8,4 75,0 5,3 299 - 0,2 0 1.021,6
23:16 10,3 6,1 8,4 75,0 5,3 299 - 0,2 0 1.021,6
23:15 10,3 6,1 8,4 75,0 5,3 299 - 0,2 0 1.021,6
23:14 10,3 6,1 8,4 75,0 5,4 299 - 0,2 0 1.021,5
23:13 10,3 5,9 8,3 74,1 5,5 299 - 0,2 0 1.021,5
23:12 10,3 5,9 8,3 74,3 5,6 299 - 0,2 0 1.021,5
23:11 10,3 6,1 8,4 75,0 5,6 300 - 0,2 0 1.021,5
23:10 10,3 6,1 8,4 75,0 5,5 300 - 0,2 0 1.021,5
23:09 10,3 6,1 8,4 75,0 5,4 300 - 0,2 0 1.021,5
23:08 10,3 6,1 8,4 75,0 5,4 299 - 0,2 0 1.021,4
23:07 10,3 6,1 8,4 75,0 5,3 299 - 0,2 0 1.021,4
23:06 10,3 6,1 8,4 75,0 5,2 299 - 0,2 0 1.021,4
23:05 10,3 6,1 8,4 75,0 5,2 299 - 0,2 0 1.021,4
23:04 10,3 6,2 8,5 75,6 5,1 299 - 0,2 0 1.021,4
23:03 10,3 6,1 8,4 75,3 5,1 299 - 0,2 0 1.021,5
23:02 10,3 6,1 8,4 75,0 5,1 299 - 0,2 0 1.021,4
23:01 10,3 6,1 8,4 75,0 5,0 300 - 0,2 0 1.021,4
23:00 10,3 6,1 8,4 75,0 4,9 300 - 0,2 0 1.021,4
 
22:59 10,3 6,1 8,4 75,0 4,9 301 - 0,2 0 1.021,4
22:58 10,3 5,9 8,3 74,4 4,9 301 - 0,2 0 1.021,3
22:57 10,3 5,9 8,3 74,0 4,9 302 - 0,2 0 1.021,3
22:56 10,3 5,9 8,3 74,0 5,0 302 - 0,2 0 1.021,3
22:55 10,3 5,9 8,3 74,2 5,1 302 - 0,2 0 1.021,3
22:54 10,3 6,1 8,4 75,0 5,2 303 - 0,2 0 1.021,3
22:53 10,3 6,0 8,4 74,6 5,3 303 - 0,2 0 1.021,3
22:52 10,3 5,9 8,3 74,0 5,4 303 - 0,2 0 1.021,2
22:51 10,3 5,9 8,3 74,0 5,5 304 - 0,2 0 1.021,2
22:50 10,3 6,0 8,4 74,9 5,5 304 - 0,2 0 1.021,2
22:49 10,3 6,0 8,4 74,8 5,6 304 - 0,2 0 1.021,2
22:48 10,3 5,9 8,3 74,0 5,6 303 - 0,2 0 1.021,1
22:47 10,3 5,9 8,3 74,0 5,7 303 - 0,2 0 1.021,1
22:46 10,3 5,7 8,2 73,4 5,8 303 - 0,2 0 1.021,1
22:45 10,3 5,7 8,2 73,0 5,9 302 - 0,2 0 1.021,1
22:44 10,3 5,7 8,2 73,0 6,2 302 - 0,2 0 1.021,1
22:43 10,3 5,7 8,2 73,0 6,4 301 - 0,2 0 1.021,1
22:42 10,3 5,8 8,3 73,7 6,6 301 - 0,2 0 1.021,1
22:41 10,3 6,1 8,4 75,0 6,7 300 - 0,2 0 1.021,1
22:40 10,3 6,1 8,4 75,0 6,8 300 - 0,2 0 1.021,1
22:39 10,3 6,1 8,4 75,0 6,8 299 - 0,2 0 1.021,1
22:38 10,3 6,1 8,4 75,0 6,7 298 - 0,2 0 1.021,1
22:37 10,3 6,0 8,4 74,8 6,6 297 - 0,2 0 1.021,0
22:36 10,3 5,9 8,3 74,4 6,4 296 - 0,2 0 1.021,0
22:35 10,3 6,1 8,4 75,0 6,3 295 - 0,2 0 1.021,0
22:34 10,3 6,1 8,4 75,0 6,3 294 - 0,2 0 1.021,0
22:33 10,3 6,2 8,5 75,8 6,5 293 - 0,2 0 1.021,3
22:32 10,3 6,1 8,4 75,1 6,5 292 - 0,2 0 1.021,3
22:31 10,3 6,2 8,5 75,8 6,5 291 - 0,2 0 1.021,3
22:30 10,3 6,5 8,6 77,5 6,5 290 - 0,2 0 1.021,3
22:29 10,3 6,4 8,6 77,0 6,6 290 - 0,2 0 1.021,2
22:28 10,3 6,4 8,6 77,0 6,6 289 - 0,2 0 1.021,2
22:27 10,2 6,2 8,4 76,2 6,5 288 - 0,2 0 1.021,2
22:26 10,2 6,2 8,4 76,2 6,4 288 - 0,2 0 1.021,2
22:25 10,2 6,3 8,5 76,6 6,4 287 - 0,2 0 1.021,2
22:24 10,1 6,2 8,4 76,8 6,4 286 - 0,2 0 1.021,2
22:23 10,1 6,5 8,6 78,6 6,3 286 - 0,2 0 1.021,0
22:22 10,1 6,5 8,5 78,3 6,2 285 - 0,2 0 1.020,9
22:21 10,1 6,4 8,5 78,0 6,0 284 - 0,2 0 1.021,1
22:20 10,1 6,4 8,5 78,0 5,9 284 - 0,2 0 1.021,0
22:18 10,1 6,4 8,5 78,0 5,8 283 - 0,2 0 1.020,9
22:17 10,1 6,3 8,4 77,4 5,7 283 - 0,2 0 1.020,9
22:16 10,1 6,2 8,4 77,0 5,7 283 - 0,2 0 1.020,9
22:15 10,1 6,3 8,4 77,1 5,7 283 - 0,2 0 1.020,8
22:14 10,1 6,4 8,5 77,7 5,7 283 - 0,2 0 1.020,8
22:13 10,1 6,1 8,3 76,0 5,8 283 - 0,2 0 1.020,8
22:12 10,1 6,1 8,3 76,0 5,9 283 - 0,2 0 1.020,7
22:11 10,1 5,9 8,2 75,4 6,1 283 - 0,2 0 1.020,7
22:10 10,1 6,0 8,3 75,8 6,3 283 - 0,2 0 1.020,7
22:09 10,1 6,1 8,3 76,0 6,5 283 - 0,2 0 1.020,7
22:08 10,1 6,1 8,3 76,0 6,6 283 - 0,2 0 1.020,6
22:07 10,1 6,1 8,3 76,0 6,6 283 - 0,2 0 1.020,6
22:06 10,1 6,2 8,4 77,0 6,7 283 - 0,2 0 1.020,6
22:05 10,1 6,3 8,4 77,3 6,7 282 - 0,2 0 1.020,6
22:04 10,1 6,2 8,4 77,0 6,9 282 - 0,2 0 1.020,6
22:03 10,1 6,1 8,3 76,1 7,1 282 - 0,2 0 1.020,6
22:02 10,1 6,1 8,3 76,2 7,3 282 - 0,2 0 1.020,5
22:01 10,1 6,2 8,4 76,6 7,6 281 - 0,2 0 1.020,5
22:00 10,1 6,1 8,3 76,0 7,7 281 - 0,2 0 1.020,5
 
21:59 10,1 6,2 8,4 76,7 7,8 281 - 0,2 0 1.020,5
21:58 10,1 6,1 8,3 76,2 7,8 282 - 0,2 0 1.020,5
21:57 10,1 6,1 8,3 76,2 7,7 282 - 0,2 0 1.020,5
21:56 10,1 6,2 8,4 77,0 7,6 282 - 0,2 0 1.020,5
21:55 10,2 6,3 8,5 77,0 7,5 282 - 0,2 0 1.020,5
21:54 10,2 6,3 8,4 76,5 7,5 282 - 0,2 0 1.020,6
21:53 10,1 6,1 8,3 76,0 7,4 282 - 0,2 0 1.020,5
21:52 10,1 6,1 8,3 76,0 7,3 283 - 0,2 0 1.020,5
21:51 10,1 6,2 8,4 77,0 7,3 283 - 0,2 0 1.020,5
21:50 10,1 6,3 8,4 77,3 7,2 284 - 0,2 0 1.020,6
21:49 10,1 6,4 8,5 78,0 7,0 284 - 0,2 0 1.020,6
21:48 10,1 6,3 8,4 77,5 6,7 285 - 0,2 0 1.020,6
21:47 10,0 6,0 8,2 76,3 6,4 285 - 0,2 0 1.020,6
21:46 10,0 6,1 8,3 76,9 6,1 286 - 0,2 0 1.020,6
21:45 10,0 6,2 8,3 77,2 5,7 287 - 0,2 0 1.020,5
21:44 10,0 6,3 8,4 78,0 5,5 288 - 0,2 0 1.020,5
21:43 10,0 6,3 8,4 78,0 5,3 289 - 0,2 0 1.020,5
21:42 9,9 6,2 8,3 78,0 5,2 291 - 0,2 0 1.020,5
21:41 9,9 6,2 8,3 78,0 5,1 291 - 0,2 0 1.020,5
21:40 9,9 6,2 8,3 78,0 5,0 292 - 0,2 0 1.020,5
21:39 9,9 6,2 8,3 78,0 4,9 293 - 0,2 0 1.020,5
21:37 9,9 6,4 8,4 79,0 4,9 294 - 0,2 0 1.020,4
21:36 9,8 6,3 8,3 79,0 4,8 294 - 0,2 0 1.020,5
21:35 9,8 6,3 8,3 79,0 4,7 295 - 0,2 0 1.020,5
21:34 9,8 6,3 8,3 79,0 4,6 295 - 0,2 0 1.020,4
21:33 9,8 6,3 8,3 79,0 4,6 296 - 0,2 0 1.020,4
21:32 9,8 6,3 8,3 79,0 4,7 297 - 0,2 0 1.020,4
21:31 9,8 6,5 8,4 79,7 4,7 297 - 0,2 0 1.020,4
21:30 9,8 6,4 8,3 79,4 4,7 298 - 0,2 0 1.020,4
21:29 9,8 6,3 8,3 79,0 4,7 299 - 0,2 0 1.020,4
21:28 9,8 6,3 8,3 79,1 4,7 299 - 0,2 0 1.020,4
21:27 9,8 6,5 8,4 79,8 4,7 300 - 0,2 0 1.020,4
21:26 9,8 6,3 8,3 79,0 4,6 301 - 0,2 0 1.020,4
21:25 9,8 6,3 8,3 79,0 4,7 301 - 0,2 0 1.020,4
21:24 9,8 6,3 8,3 79,0 4,7 302 - 0,2 0 1.020,4
21:23 9,8 6,3 8,3 79,0 4,7 302 - 0,2 0 1.020,3
21:22 9,8 6,3 8,3 79,0 4,7 303 - 0,2 0 1.020,3
21:21 9,8 6,3 8,3 79,0 4,8 304 - 0,2 0 1.020,3
21:20 9,8 6,3 8,3 79,0 4,8 304 - 0,2 0 1.020,3
21:19 9,8 6,3 8,3 79,0 4,8 305 - 0,2 0 1.020,3
21:18 9,8 6,3 8,3 79,0 4,8 305 - 0,2 0 1.020,3
21:17 9,8 6,3 8,3 79,0 4,8 306 - 0,2 0 1.020,3
21:16 9,8 6,3 8,3 79,0 4,8 307 - 0,2 0 1.020,3
21:15 9,8 6,3 8,3 79,0 4,8 308 - 0,2 0 1.020,3
21:14 9,8 6,3 8,3 79,0 4,9 308 - 0,2 0 1.020,3
21:13 9,8 6,3 8,3 79,0 4,9 309 - 0,2 0 1.020,2
21:12 9,8 6,5 8,4 79,7 4,9 309 - 0,2 0 1.020,3
21:11 9,8 6,5 8,4 80,0 4,9 310 - 0,2 0 1.020,3
21:10 9,8 6,5 8,4 79,9 4,9 311 - 0,2 0 1.020,2
21:09 9,8 6,3 8,3 79,0 4,9 312 - 0,2 0 1.020,2
21:08 9,8 6,3 8,3 79,0 5,0 313 - 0,2 0 1.020,2
21:07 9,8 6,3 8,3 79,0 5,1 313 - 0,2 0 1.020,2
21:06 9,8 6,5 8,4 79,7 5,1 314 - 0,2 0 1.020,2
21:05 9,8 6,5 8,4 80,0 5,2 315 - 0,2 0 1.020,2
21:04 9,8 6,5 8,4 80,0 5,3 316 - 0,2 0 1.020,2
21:03 9,8 6,5 8,4 80,0 5,3 316 - 0,2 0 1.020,2
21:02 9,9 6,6 8,5 80,0 5,4 317 - 0,2 0 1.020,2
21:01 9,8 6,4 8,3 79,5 5,4 318 - 0,2 0 1.020,2
21:00 9,8 6,3 8,3 79,0 5,5 318 - 0,2 0 1.020,2
 
20:59 9,8 6,3 8,3 79,0 5,6 319 - 0,2 0 1.020,1
20:58 9,8 6,3 8,3 79,0 5,7 319 - 0,2 0 1.020,2
20:57 9,8 6,3 8,3 78,7 5,8 319 - 0,2 0 1.020,1
20:56 9,8 6,2 8,3 78,5 6,0 319 - 0,2 0 1.020,1
20:55 9,9 6,4 8,4 79,0 6,1 319 - 0,2 0 1.020,1
20:54 9,9 6,3 8,3 78,3 6,3 319 - 0,2 0 1.020,0
20:53 9,9 6,2 8,3 78,0 6,6 319 - 0,2 0 1.020,0
20:52 10,0 6,3 8,4 78,0 6,8 319 - 0,2 0 1.020,0
20:51 10,0 6,3 8,4 78,0 7,0 319 - 0,2 0 1.020,0
20:50 10,1 6,4 8,5 78,0 7,3 319 - 0,2 0 1.020,0
20:49 10,1 6,4 8,5 78,0 7,6 318 - 0,2 0 1.019,9
20:48 10,1 6,3 8,4 77,3 7,8 318 - 0,2 0 1.019,9
20:47 10,2 6,3 8,5 77,0 8,0 317 - 0,2 0 1.019,9
20:46 10,2 6,3 8,5 76,8 8,2 317 - 0,2 0 1.019,9
20:45 10,2 6,2 8,4 76,0 8,4 316 - 0,2 0 1.019,8
20:44 10,3 6,3 8,5 76,5 8,5 316 - 0,2 0 1.019,8
20:43 10,3 6,3 8,5 76,4 8,7 315 - 0,2 0 1.019,8
20:42 10,3 6,3 8,5 76,0 8,7 314 - 0,2 0 1.019,7
20:41 10,3 6,3 8,5 76,1 8,5 313 - 0,2 0 1.019,6
20:40 10,3 6,4 8,6 76,8 8,2 313 11,6 0,2 0 1.019,7
20:39 10,3 6,3 8,5 76,4 7,9 312 - 0,2 0 1.019,7
20:38 10,3 6,4 8,6 77,0 7,5 311 - 0,2 0 1.019,7
20:37 10,3 6,6 8,7 77,7 7,0 310 - 0,2 0 1.019,6
20:36 10,3 6,6 8,7 78,0 6,7 309 - 0,2 0 1.019,6
20:35 10,3 6,5 8,6 77,1 6,5 308 - 0,2 0 1.019,6
20:34 10,3 6,4 8,6 77,0 6,4 307 - 0,2 0 1.019,6
20:33 10,3 6,4 8,6 77,0 6,4 306 - 0,2 0 1.019,6
20:32 10,3 6,4 8,6 77,0 6,4 305 - 0,2 0 1.019,6
20:31 10,3 6,4 8,6 77,0 6,4 304 - 0,2 0 1.019,6
20:30 10,3 6,4 8,6 77,0 6,4 303 - 0,2 0 1.019,6
20:29 10,3 6,4 8,6 77,0 6,4 302 - 0,2 0 1.019,6
20:28 10,3 6,4 8,6 77,0 6,3 301 - 0,2 0 1.019,6
20:27 10,3 6,4 8,6 77,0 6,2 301 - 0,2 0 1.019,6
20:26 10,3 6,6 8,7 78,1 6,0 300 - 0,2 0 1.019,5
20:25 10,3 6,7 8,7 78,3 5,8 300 - 0,2 0 1.019,6
20:24 10,3 6,6 8,7 78,0 5,8 300 - 0,2 0 1.019,7
20:23 10,3 6,6 8,7 78,0 5,7 300 - 0,2 0 1.019,7
20:22 10,3 6,6 8,7 77,6 5,8 300 - 0,2 0 1.019,6
20:21 10,3 6,5 8,6 77,4 5,9 301 - 0,2 0 1.019,6
20:20 10,4 6,7 8,8 78,0 6,0 301 - 0,2 0 1.019,5
20:19 10,4 6,6 8,7 77,3 6,2 301 - 0,2 0 1.019,5
20:18 10,3 6,4 8,6 77,0 6,3 301 - 0,2 0 1.019,5
20:17 10,3 6,4 8,6 77,0 6,4 302 - 0,2 0 1.019,5
20:16 10,3 6,4 8,6 77,0 6,5 302 - 0,2 0 1.019,5
20:15 10,3 6,4 8,6 76,6 6,6 302 - 0,2 0 1.019,4
20:14 10,3 6,4 8,6 76,6 6,6 302 - 0,2 0 1.019,4
20:13 10,3 6,6 8,7 77,8 6,5 303 - 0,2 0 1.019,4
20:12 10,3 6,6 8,7 78,0 6,5 303 - 0,2 0 1.019,4
20:11 10,3 6,4 8,6 77,0 6,5 303 - 0,2 0 1.019,4
20:10 10,3 6,4 8,6 77,0 6,5 303 - 0,2 0 1.019,4
20:09 10,3 6,4 8,6 77,0 6,6 303 - 0,2 0 1.019,3
20:08 10,3 6,6 8,7 77,6 6,7 303 - 0,2 0 1.019,3
20:07 10,3 6,6 8,7 78,0 6,7 303 - 0,2 0 1.019,3
20:06 10,3 6,6 8,7 78,0 6,7 302 - 0,2 0 1.019,2
20:05 10,3 6,6 8,7 78,0 6,8 302 - 0,2 0 1.019,2
20:04 10,3 6,6 8,7 78,0 6,7 302 - 0,2 0 1.019,2
20:03 10,3 6,6 8,7 78,0 6,7 301 - 0,2 0 1.019,2
20:02 10,3 6,6 8,7 78,0 6,8 301 - 0,2 0 1.019,2
20:01 10,3 6,5 8,6 77,2 6,9 301 - 0,2 0 1.019,1
20:00 10,3 6,3 8,5 76,2 7,0 301 - 0,2 0 1.019,1
 
19:59 10,3 6,4 8,6 77,0 7,0 301 - 0,2 0 1.019,1
19:58 10,3 6,4 8,6 77,0 7,1 301 - 0,2 0 1.019,1
19:57 10,3 6,4 8,6 77,0 7,1 301 - 0,2 0 1.019,1
19:56 10,4 6,5 8,7 77,0 7,1 301 - 0,2 0 1.019,1
19:55 10,3 6,3 8,5 76,2 7,2 301 - 0,2 0 1.019,1
19:54 10,3 6,1 8,4 75,2 7,3 302 - 0,2 0 1.019,1
19:53 10,3 6,2 8,5 75,8 7,4 302 - 0,2 0 1.019,0
19:52 10,3 6,1 8,4 75,0 7,5 302 - 0,2 0 1.019,0
19:51 10,3 6,2 8,5 75,6 7,6 303 - 0,2 0 1.019,0
19:50 10,3 6,4 8,6 76,7 7,7 303 - 0,2 0 1.019,0
19:49 10,3 6,3 8,5 76,2 7,7 303 - 0,2 0 1.019,0
19:48 10,3 6,3 8,5 76,1 7,7 303 - 0,2 0 1.019,0
19:47 10,3 6,5 8,6 77,3 7,7 303 - 0,2 0 1.019,0
19:46 10,3 6,6 8,7 77,6 7,7 303 - 0,2 0 1.018,9
19:45 10,3 6,4 8,6 77,0 7,7 303 - 0,2 0 1.018,9
19:44 10,3 6,4 8,6 77,0 7,8 303 - 0,2 0 1.018,9
19:43 10,3 6,4 8,6 77,0 7,8 303 - 0,2 0 1.018,9
19:42 10,3 6,4 8,6 77,0 7,8 302 - 0,2 0 1.018,9
19:41 10,3 6,4 8,6 77,0 7,9 302 - 0,2 0 1.018,8
19:40 10,3 6,4 8,6 77,0 8,0 301 - 0,2 0 1.018,8
19:39 10,3 6,4 8,6 77,0 8,2 301 - 0,2 0 1.018,8
19:38 10,3 6,2 8,5 75,6 8,3 300 - 0,2 0 1.018,8
19:37 10,3 6,2 8,5 75,9 8,4 299 - 0,2 0 1.018,8
19:36 10,3 6,4 8,6 77,0 8,5 298 - 0,2 0 1.018,8
19:35 10,3 6,4 8,6 77,0 8,5 298 - 0,2 0 1.018,8
19:34 10,2 6,3 8,5 77,0 8,4 297 - 0,2 0 1.018,7
19:33 10,2 6,3 8,5 77,0 8,4 296 - 0,2 0 1.018,8
19:32 10,2 6,3 8,5 77,0 8,3 295 - 0,2 0 1.018,7
19:31 10,2 6,2 8,4 76,1 8,3 295 - 0,2 0 1.018,6
19:30 10,2 6,2 8,4 76,0 8,3 294 - 0,2 0 1.018,6
19:29 10,1 6,1 8,3 76,3 8,4 294 - 0,2 0 1.018,6
19:28 10,1 6,2 8,4 76,6 8,4 294 - 0,2 0 1.018,6
19:27 10,1 6,1 8,3 76,0 8,5 293 - 0,2 0 1.018,6
19:26 10,1 6,1 8,3 76,0 8,4 293 - 0,2 0 1.018,6
19:25 10,1 6,1 8,3 76,1 8,3 293 - 0,2 0 1.018,5
19:24 10,1 6,2 8,4 77,0 8,0 293 - 0,2 0 1.018,6
19:23 10,1 6,2 8,4 76,7 7,9 294 - 0,2 0 1.018,5
19:22 10,1 6,1 8,3 76,0 7,9 294 - 0,2 0 1.018,5
19:21 10,1 6,1 8,3 76,0 8,0 295 - 0,2 0 1.018,5
19:20 10,1 6,1 8,3 76,0 8,0 295 - 0,2 0 1.018,5
19:19 10,1 6,1 8,3 76,1 8,1 296 - 0,2 0 1.018,5
19:18 10,1 6,2 8,4 77,0 8,1 297 - 0,2 0 1.018,5
19:17 10,1 6,3 8,4 77,4 8,0 298 - 0,2 0 1.018,5
19:16 10,1 6,3 8,4 77,5 7,7 298 - 0,2 0 1.018,6
19:15 10,1 6,4 8,5 77,7 7,5 299 - 0,2 0 1.018,6
19:14 10,1 6,3 8,4 77,2 7,4 300 - 0,2 0 1.018,7
19:13 10,1 6,3 8,4 77,1 7,3 301 - 0,2 0 1.018,6
19:12 10,2 6,6 8,6 78,3 7,3 302 - 0,2 0 1.018,6
19:11 10,2 6,7 8,7 79,0 7,3 303 - 0,2 0 1.018,6
19:10 10,2 6,6 8,6 78,5 7,4 304 - 0,2 0 1.018,6
19:09 10,2 6,4 8,5 77,4 7,6 305 - 0,2 0 1.018,6
19:08 10,2 6,5 8,6 77,8 7,9 306 - 0,2 0 1.018,6
19:07 10,2 6,3 8,5 77,0 8,2 306 - 0,2 0 1.018,6
19:06 10,2 6,2 8,4 76,3 8,6 307 - 0,2 0 1.018,5
19:05 10,2 6,3 8,5 77,0 9,0 308 - 0,2 0 1.018,5
19:04 10,2 6,3 8,5 77,0 9,2 309 - 0,2 0 1.018,5
19:03 10,2 6,2 8,4 76,3 9,3 310 - 0,2 0 1.018,5
19:02 10,3 6,4 8,6 76,9 9,3 310 - 0,2 0 1.018,5
19:01 10,4 6,7 8,8 78,0 9,1 311 - 0,2 0 1.018,4
19:00 10,4 6,7 8,8 78,0 9,0 312 - 0,2 0 1.018,4
 
18:59 10,5 6,7 8,8 77,4 8,9 313 - 0,2 0 1.018,4
18:58 10,5 6,6 8,8 77,0 9,0 313 - 0,2 0 1.018,4
18:57 10,5 6,5 8,7 76,3 9,1 314 - 0,2 0 1.018,4
18:56 10,6 6,5 8,8 76,0 9,2 315 - 0,2 0 1.018,3
18:55 10,6 6,7 8,9 76,8 9,2 315 12,5 0,2 0 1.018,4
18:54 10,6 6,5 8,8 76,0 9,2 316 - 0,2 0 1.018,3
18:53 10,6 6,5 8,8 76,0 9,1 316 - 0,2 0 1.018,2
18:52 10,7 6,8 8,9 76,6 8,8 317 - 0,2 0 1.018,2
18:51 10,7 6,8 9,0 77,0 8,5 317 - 0,2 0 1.018,3
18:50 10,7 6,7 8,9 76,1 8,3 317 - 0,2 0 1.018,2
18:49 10,7 6,7 8,9 76,2 8,1 317 - 0,2 0 1.018,1
18:48 10,7 6,8 9,0 76,7 7,9 317 - 0,2 0 1.018,1
18:47 10,7 6,6 8,9 76,0 7,8 316 - 0,2 0 1.018,0
18:46 10,7 6,5 8,8 75,4 7,7 316 - 0,2 0 1.018,0
18:45 10,7 6,4 8,8 75,0 7,7 316 - 0,2 0 1.018,0
18:44 10,7 6,6 8,9 75,9 7,6 316 - 0,2 0 1.018,0
18:43 10,7 6,6 8,9 76,0 7,6 316 - 0,2 0 1.017,9
18:42 10,7 6,7 8,9 76,4 7,6 315 - 0,2 0 1.017,8
18:41 10,8 6,7 9,0 76,0 7,7 315 - 0,2 0 1.017,8
18:40 10,7 6,6 8,9 75,7 7,7 314 - 0,2 0 1.017,8
18:39 10,8 6,9 9,1 76,8 7,6 314 - 0,2 0 1.017,8
18:38 10,8 6,9 9,1 76,9 7,6 314 - 0,2 0 1.017,8
18:37 10,8 6,7 9,0 76,0 7,6 314 - 0,2 0 1.017,7
18:36 10,8 6,7 8,9 75,7 7,7 313 - 0,2 0 1.017,7
18:35 10,8 6,5 8,9 75,0 7,7 313 - 0,2 0 1.017,7
18:34 10,8 6,5 8,9 75,0 7,7 313 - 0,2 0 1.017,7
18:33 10,8 6,5 8,9 75,0 7,9 312 - 0,2 0 1.017,7
18:32 10,8 6,5 8,9 75,0 8,0 312 - 0,2 2 1.017,6
18:31 10,8 6,5 8,9 75,0 8,1 311 - 0,2 5 1.017,6
18:30 10,9 6,6 9,0 75,0 8,2 310 - 0,2 5 1.017,6
18:29 10,9 6,6 9,0 75,0 8,3 310 - 0,2 5 1.017,6
18:28 10,9 6,6 9,0 75,0 8,3 309 - 0,2 5 1.017,6
18:27 10,9 6,6 9,0 75,0 8,2 308 - 0,2 5 1.017,6
18:26 10,9 6,6 9,0 75,0 8,2 307 - 0,2 5 1.017,5
18:25 10,9 6,6 9,0 75,0 8,3 307 - 0,2 6 1.017,5
18:24 10,9 6,6 8,9 74,6 8,4 306 - 0,2 7 1.017,4
18:23 10,9 6,4 8,9 74,0 8,5 306 - 0,2 7 1.017,4
18:22 10,9 6,4 8,9 74,0 8,7 306 - 0,2 7 1.017,4
18:21 10,9 6,4 8,9 74,0 8,9 305 - 0,2 8 1.017,4
18:20 10,9 6,4 8,9 74,0 8,9 305 - 0,2 9 1.017,3
18:19 10,9 6,4 8,9 74,0 9,0 305 - 0,2 10 1.017,3
18:18 10,9 6,4 8,9 74,0 9,0 304 - 0,2 12 1.017,3
18:17 11,0 6,5 9,0 74,0 9,0 304 - 0,2 12 1.017,4
18:16 11,0 6,7 9,0 74,7 9,0 303 - 0,2 13 1.017,4
18:15 11,0 6,6 9,0 74,2 9,0 303 - 0,2 14 1.017,4
18:14 11,0 6,5 8,9 73,8 9,1 302 - 0,2 14 1.017,3
18:13 11,0 6,3 8,9 73,0 9,2 302 - 0,2 13 1.017,3
18:12 11,0 6,4 8,9 73,5 9,3 302 - 0,2 14 1.017,2
18:11 11,0 6,5 9,0 74,0 9,6 302 - 0,2 14 1.017,2
18:10 11,0 6,4 8,9 73,3 9,9 302 - 0,2 16 1.017,2
18:09 11,0 6,3 8,9 73,0 10,1 302 - 0,2 16 1.017,2
18:08 11,1 6,5 9,0 73,2 10,3 302 - 0,2 17 1.017,1
18:07 11,1 6,6 9,0 73,7 10,5 301 - 0,2 18 1.017,0
18:06 11,1 6,4 8,9 72,6 10,6 301 - 0,2 19 1.017,0
18:05 11,1 6,4 8,9 72,6 10,6 301 - 0,2 19 1.017,0
18:04 11,1 6,4 9,0 73,0 10,7 300 - 0,2 21 1.016,9
18:03 11,1 6,3 8,9 72,1 10,7 300 - 0,2 21 1.016,9
18:02 11,1 6,3 8,9 72,2 10,7 299 - 0,2 21 1.016,9
18:00 11,1 6,5 9,0 73,5 10,6 299 13,9 0,2 21 1.016,8
 
17:59 11,1 6,8 9,1 74,7 10,4 299 - 0,2 21 1.016,9
17:58 11,1 7,0 9,2 75,8 10,1 299 - 0,2 22 1.016,9
17:57 11,1 7,0 9,3 76,1 9,8 299 - 0,2 24 1.016,9
17:56 11,1 7,3 9,4 77,2 9,4 299 - 0,2 27 1.016,9
17:55 11,1 7,4 9,5 78,0 9,1 300 - 0,2 30 1.016,9
17:54 11,1 7,4 9,5 78,0 9,0 300 - 0,2 30 1.016,9
17:53 11,1 7,3 9,4 77,3 8,9 300 - 0,2 30 1.016,9
17:52 11,1 7,2 9,4 77,0 8,8 300 - 0,2 32 1.016,8
17:51 11,1 7,2 9,4 76,9 8,7 300 - 0,2 33 1.016,8
17:50 11,0 7,0 9,2 76,3 8,7 299 - 0,2 32 1.016,8
17:49 11,0 7,0 9,2 76,6 8,7 299 - 0,2 29 1.016,8
17:48 11,0 7,1 9,3 77,1 8,6 299 - 0,2 26 1.016,7
17:47 11,1 7,5 9,5 78,7 8,5 298 - 0,2 26 1.016,8
17:46 11,1 7,6 9,6 79,0 8,3 298 - 0,2 26 1.016,8
17:45 11,0 7,3 9,4 78,1 8,1 298 - 0,2 27 1.016,8
17:44 11,0 7,4 9,4 78,3 7,8 298 - 0,2 26 1.016,7
17:43 11,1 7,6 9,6 79,0 7,6 298 - 0,2 28 1.016,8
17:42 11,1 7,6 9,6 79,0 7,5 298 - 0,2 28 1.016,8
17:41 11,0 7,4 9,4 78,3 7,5 298 - 0,2 31 1.016,8
17:40 11,0 7,5 9,5 78,9 7,4 298 - 0,2 37 1.016,9
17:39 11,0 7,5 9,5 79,0 7,5 298 - 0,2 49 1.016,8
17:38 11,0 7,6 9,5 79,3 7,5 298 - 0,2 56 1.016,8
17:37 11,0 7,7 9,6 80,0 7,6 298 - 0,2 55 1.016,8
17:36 11,0 7,8 9,6 80,6 7,5 299 - 0,2 56 1.016,8
17:35 11,0 7,9 9,7 81,0 7,4 299 - 0,2 55 1.016,8
17:34 11,1 8,0 9,8 81,0 7,2 299 - 0,2 40 1.016,8
17:33 11,0 7,9 9,7 81,0 7,1 299 - 0,2 35 1.016,8
17:32 11,0 7,9 9,7 81,0 7,0 300 - 0,2 38 1.016,8
17:31 11,0 7,9 9,7 81,0 6,9 300 - 0,2 41 1.016,7
17:30 11,0 8,0 9,7 81,6 6,7 300 - 0,2 46 1.016,7
17:29 11,1 8,1 9,9 82,0 6,6 301 - 0,2 51 1.016,7
17:28 11,1 8,1 9,9 82,0 6,5 301 - 0,2 61 1.016,7
17:27 11,1 8,1 9,9 82,0 6,5 302 - 0,2 70 1.016,8
17:26 11,0 8,0 9,8 82,0 6,4 303 - 0,2 85 1.016,8
17:25 11,0 8,0 9,8 82,0 6,5 303 - 0,2 78 1.016,8
17:24 11,0 7,9 9,7 81,4 6,8 304 - 0,2 60 1.016,7
17:23 11,0 7,9 9,7 81,0 7,0 305 - 0,2 58 1.016,7
17:22 11,0 7,9 9,7 81,0 7,2 305 - 0,2 62 1.016,7
17:21 11,0 7,9 9,7 81,0 7,4 306 - 0,2 62 1.016,7
17:20 11,0 7,9 9,7 81,0 7,6 307 - 0,2 58 1.016,7
17:19 10,9 7,8 9,6 81,0 7,7 308 - 0,2 59 1.016,6
17:18 11,0 7,9 9,7 81,0 7,8 308 - 0,2 67 1.016,6
17:17 11,0 7,9 9,7 81,0 7,9 309 - 0,2 67 1.016,6
17:16 11,0 7,9 9,7 81,1 7,9 310 - 0,2 65 1.016,6
17:15 11,0 8,0 9,8 81,8 7,9 311 - 0,2 60 1.016,6
17:14 11,0 7,9 9,7 81,0 7,9 312 - 0,2 51 1.016,6
17:13 11,0 7,9 9,7 81,0 7,9 312 - 0,2 45 1.016,6
17:12 11,0 7,9 9,7 81,0 7,8 313 - 0,2 42 1.016,5
17:11 11,0 8,0 9,8 81,8 7,8 314 - 0,2 43 1.016,5
17:10 11,0 8,0 9,8 82,0 7,9 314 - 0,2 45 1.016,5
17:09 11,0 8,0 9,8 81,8 8,0 314 - 0,2 46 1.016,5
17:08 11,0 7,9 9,7 81,0 8,1 314 - 0,2 45 1.016,4
17:07 11,0 8,0 9,7 81,6 8,2 314 - 0,2 44 1.016,4
17:06 11,0 8,0 9,8 82,0 8,5 313 - 0,2 46 1.016,4
17:05 11,0 7,9 9,7 81,2 8,7 312 - 0,2 46 1.016,3
17:04 10,9 7,8 9,6 81,3 8,9 312 - 0,2 47 1.016,3
17:03 10,9 7,9 9,7 82,0 9,0 311 - 0,2 48 1.016,3
17:02 10,9 7,9 9,7 82,0 9,0 310 - 0,2 49 1.016,3
17:01 10,9 7,9 9,7 82,0 8,9 309 - 0,2 54 1.016,3
17:00 10,9 8,1 9,8 82,9 8,7 308 - 0,2 59 1.016,3
 
16:59 10,9 8,1 9,8 83,0 8,5 307 - 0,2 54 1.016,2
16:58 10,9 8,1 9,8 83,0 8,3 306 - 0,2 54 1.016,2
16:57 10,9 8,1 9,8 83,0 8,1 306 - 0,2 57 1.016,2
16:56 10,9 8,1 9,8 83,0 7,9 305 - 0,2 65 1.016,1
16:55 10,9 8,1 9,8 83,0 7,8 304 - 0,2 67 1.016,0
16:54 10,9 8,0 9,7 82,3 7,7 304 - 0,2 62 1.016,1
16:53 10,9 7,9 9,7 82,0 7,7 303 - 0,2 61 1.016,0
16:52 10,9 8,0 9,7 82,2 7,7 303 - 0,2 61 1.016,0
16:51 10,9 8,1 9,8 83,0 7,7 302 - 0,2 66 1.015,9
16:50 10,9 8,2 9,8 83,5 7,6 302 - 0,2 81 1.015,9
16:49 11,0 8,4 10,0 84,0 7,6 302 - 0,2 108 1.016,0
16:48 11,0 8,3 9,9 83,3 7,5 302 - 0,2 177 1.015,9
16:47 11,0 8,2 9,9 83,0 7,5 303 - 0,2 187 1.015,9
16:46 10,9 8,1 9,7 82,7 7,6 303 - 0,2 141 1.015,9
16:45 10,9 7,9 9,7 82,0 7,8 304 - 0,2 109 1.015,8
16:44 10,9 7,9 9,7 82,0 8,0 304 - 0,2 155 1.015,8
16:43 11,0 7,9 9,7 81,4 8,1 305 - 0,2 165 1.015,8
16:42 11,0 8,0 9,8 81,8 8,2 306 - 0,2 172 1.015,8
16:41 11,0 8,0 9,8 82,0 8,2 306 - 0,2 195 1.015,8
16:40 11,0 8,0 9,8 82,0 8,1 307 - 0,2 201 1.015,7
16:39 11,0 8,0 9,7 81,7 8,2 308 - 0,2 207 1.015,7
16:38 10,9 7,8 9,6 81,0 8,2 309 - 0,2 209 1.015,7
16:37 10,9 7,9 9,6 81,7 8,2 310 - 0,2 210 1.015,7
16:36 10,9 7,9 9,7 82,0 8,3 310 - 0,2 214 1.015,7
16:35 10,9 7,9 9,7 82,0 8,4 311 - 0,2 211 1.015,7
16:34 10,9 7,9 9,7 81,8 8,5 312 - 0,2 220 1.015,7
16:33 10,9 7,8 9,6 81,4 8,5 312 - 0,2 221 1.015,6
16:32 10,9 7,9 9,7 82,0 8,6 312 - 0,2 208 1.015,6
16:31 10,8 7,8 9,6 82,0 8,7 312 - 0,2 205 1.015,6
16:30 10,8 7,8 9,6 82,0 8,7 312 - 0,2 180 1.015,5
16:29 10,8 7,8 9,6 82,0 8,8 312 - 0,2 81 1.015,5
16:28 10,8 7,9 9,6 82,3 8,9 312 - 0,2 82 1.015,5
16:27 10,9 8,1 9,8 83,0 8,9 311 - 0,2 88 1.015,5
16:26 10,9 8,0 9,7 82,5 9,0 311 - 0,2 110 1.015,5
16:25 10,9 8,1 9,7 82,7 9,2 310 - 0,2 109 1.015,4
16:24 10,9 8,0 9,7 82,2 9,5 310 - 0,2 112 1.015,4
16:23 10,9 8,1 9,8 83,0 9,7 309 - 0,2 120 1.015,3
16:22 10,9 8,1 9,8 83,0 9,8 308 - 0,2 120 1.015,3
16:21 11,0 8,2 9,9 83,0 9,7 308 13,0 0,2 104 1.015,3
16:20 11,0 8,2 9,9 83,0 9,4 307 - 0,2 75 1.015,4
16:19 11,0 8,2 9,9 83,0 9,2 306 - 0,2 72 1.015,3
16:18 10,9 8,1 9,8 83,0 9,0 306 - 0,2 92 1.015,3
16:17 10,9 8,0 9,7 82,2 8,8 305 - 0,2 113 1.015,3
16:16 10,9 8,2 9,8 83,3 8,7 304 - 0,2 125 1.015,3
16:15 11,0 8,4 10,0 84,0 8,6 304 - 0,2 146 1.015,3
16:14 11,0 8,4 10,0 84,0 8,7 304 - 0,2 281 1.015,3
16:13 11,0 8,3 9,9 83,3 8,7 303 - 0,2 295 1.015,3
16:12 10,9 8,3 9,9 83,9 8,8 303 - 0,2 295 1.015,3
16:11 10,9 8,3 9,9 84,0 8,8 303 - 0,2 280 1.015,3
16:10 10,9 8,3 9,9 84,0 8,9 303 - 0,2 299 1.015,2
16:09 10,8 8,2 9,8 84,0 9,0 303 - 0,2 348 1.015,2
16:08 10,8 8,3 9,8 84,6 8,9 303 - 0,2 366 1.015,2
16:07 10,8 8,4 9,9 85,0 8,8 303 - 0,2 270 1.015,2
16:06 10,8 8,2 9,8 84,2 8,7 303 - 0,2 206 1.015,2
16:05 10,8 8,4 9,9 85,0 8,6 303 - 0,2 165 1.015,2
16:04 10,7 8,3 9,8 85,0 8,5 303 - 0,2 158 1.015,2
16:03 10,7 8,2 9,7 84,6 8,4 303 - 0,2 268 1.015,1
16:02 10,7 8,2 9,7 84,6 8,3 303 - 0,2 292 1.015,2
16:01 10,7 8,3 9,8 85,0 8,2 303 - 0,2 275 1.015,2
16:00 10,6 8,2 9,7 85,0 8,2 303 - 0,2 271 1.015,2
 
15:59 10,6 8,2 9,7 85,0 8,2 303 - 0,2 193 1.015,1
15:58 10,5 8,1 9,6 85,0 8,2 303 - 0,2 148 1.015,1
15:57 10,6 8,2 9,7 85,0 8,2 303 - 0,2 153 1.015,1
15:56 10,6 8,3 9,7 85,7 8,1 303 - 0,2 161 1.015,1
15:55 10,6 8,4 9,8 86,0 8,1 304 - 0,2 149 1.015,1
15:54 10,6 8,4 9,8 86,0 8,0 304 - 0,2 141 1.015,2
15:53 10,6 8,4 9,8 86,0 8,0 305 - 0,2 148 1.015,2
15:52 10,6 8,4 9,8 86,0 8,0 306 - 0,2 182 1.015,1
15:51 10,6 8,4 9,8 86,0 8,1 307 - 0,2 220 1.015,2
15:50 10,6 8,5 9,8 86,7 8,1 307 - 0,2 394 1.015,2
15:49 10,5 8,4 9,8 87,0 8,1 308 - 0,2 338 1.015,2
15:48 10,5 8,4 9,8 87,0 8,1 309 - 0,2 185 1.015,2
15:47 10,4 8,3 9,7 87,0 8,1 309 - 0,2 199 1.015,2
15:46 10,4 8,3 9,7 87,0 8,1 310 - 0,2 208 1.015,2
15:45 10,4 8,3 9,7 87,0 8,0 310 - 0,2 201 1.015,1
15:44 10,4 8,4 9,7 87,7 7,9 311 - 0,2 208 1.015,1
15:43 10,4 8,5 9,8 88,0 7,8 311 - 0,2 214 1.015,1
15:42 10,3 8,4 9,7 88,0 7,7 312 - 0,2 211 1.015,1
15:41 10,3 8,4 9,7 88,0 7,7 312 - 0,2 210 1.015,1
15:40 10,3 8,4 9,7 88,0 7,7 312 - 0,2 199 1.015,1
15:39 10,2 8,3 9,6 88,0 7,9 312 - 0,2 177 1.015,0
15:38 10,2 8,3 9,6 88,0 8,1 311 - 0,2 160 1.015,0
15:37 10,2 8,5 9,6 88,9 8,3 310 - 0,2 156 1.015,0
15:36 10,2 8,5 9,7 89,0 8,5 310 - 0,2 145 1.014,9
15:35 10,2 8,5 9,7 89,0 8,6 309 - 0,2 131 1.015,0
15:34 10,2 8,5 9,7 89,0 8,6 308 - 0,2 101 1.015,0
15:33 10,2 8,5 9,7 89,0 8,6 307 - 0,2 92 1.015,0
15:32 10,3 8,6 9,8 89,0 8,6 305 - 0,2 80 1.014,9
15:31 10,4 8,8 9,9 89,9 8,5 304 - 0,2 73 1.014,9
15:30 10,5 8,9 10,1 90,0 8,4 303 - 0,2 70 1.014,8
15:29 10,6 9,0 10,2 90,0 8,4 302 - 0,2 63 1.014,8
15:28 10,5 8,9 10,1 90,0 8,4 301 - 0,2 62 1.014,8
15:27 10,5 8,9 10,1 90,0 8,4 300 - 0,2 54 1.014,7
15:26 10,6 8,9 10,1 89,3 8,3 299 - 0,2 53 1.014,7
15:25 10,6 8,9 10,1 89,0 8,3 298 - 0,2 54 1.014,6
15:24 10,6 8,9 10,1 89,0 8,2 297 - 0,2 65 1.014,6
15:23 10,6 8,9 10,1 89,0 8,1 296 - 0,2 91 1.014,6
15:22 10,6 8,9 10,1 89,0 8,0 295 - 0,2 101 1.014,6
15:21 10,6 8,9 10,1 89,0 7,9 295 - 0,2 110 1.014,6
15:20 10,6 8,9 10,1 89,0 7,9 294 - 0,2 99 1.014,5
15:19 10,5 8,9 10,0 89,9 7,9 294 - 0,2 82 1.014,5
15:18 10,5 8,9 10,1 90,0 7,9 294 - 0,2 76 1.014,4
15:17 10,5 8,9 10,1 90,0 7,9 294 - 0,2 87 1.014,4
15:16 10,5 8,9 10,1 90,0 7,8 295 - 0,2 110 1.014,4
15:15 10,4 8,8 10,0 90,0 7,8 295 - 0,2 126 1.014,4
15:14 10,4 8,8 10,0 90,0 7,8 295 - 0,2 141 1.014,4
15:13 10,4 8,8 10,0 90,0 7,8 296 - 0,2 147 1.014,3
15:12 10,4 8,9 10,0 90,2 7,8 296 - 0,2 168 1.014,3
15:11 10,3 8,9 9,9 91,0 7,7 297 - 0,2 203 1.014,3
15:10 10,3 8,9 9,9 91,0 7,6 297 - 0,2 219 1.014,2
15:09 10,3 8,9 9,9 91,0 7,5 298 - 0,2 218 1.014,2
15:08 10,3 8,9 9,9 91,0 7,4 298 - 0,2 195 1.014,3
15:07 10,3 8,9 9,9 91,0 7,3 299 - 0,2 156 1.014,3
15:06 10,4 9,0 10,1 91,0 7,3 299 - 0,2 137 1.014,3
15:04 10,5 9,1 10,2 91,0 7,4 299 - 0,2 134 1.014,2
15:03 10,4 9,0 10,1 91,0 7,6 300 - 0,2 129 1.014,3
15:02 10,4 9,0 10,1 91,0 7,9 300 - 0,2 117 1.014,3
15:01 10,5 9,1 10,1 90,9 8,3 300 - 0,2 107 1.014,2
15:00 10,4 8,8 10,0 90,0 8,8 300 - 0,2 104 1.014,2
 
14:59 10,4 8,8 10,0 90,0 9,3 300 - 0,2 99 1.014,1
14:58 10,5 8,9 10,1 90,0 9,6 300 - 0,2 87 1.014,1
14:57 10,6 9,0 10,2 90,0 10,0 300 - 0,2 76 1.014,1
14:56 10,7 9,0 10,2 89,3 10,4 299 - 0,2 71 1.014,1
14:55 10,8 9,2 10,3 89,7 10,5 299 - 0,2 65 1.014,0
14:54 10,9 9,2 10,4 89,0 10,6 298 - 0,2 58 1.014,0
14:53 10,9 9,2 10,4 89,0 10,6 298 - 0,2 61 1.013,9
14:52 10,9 9,2 10,4 89,0 10,6 297 - 0,2 86 1.014,0
14:51 10,9 9,2 10,4 89,0 10,5 297 - 0,2 93 1.013,9
14:50 10,9 9,2 10,4 89,0 10,4 297 - 0,2 92 1.013,8
14:49 10,9 9,1 10,4 88,8 10,5 296 - 0,2 106 1.013,8
14:48 10,9 9,0 10,3 88,0 10,5 296 - 0,2 113 1.013,7
14:47 10,8 9,0 10,2 88,5 10,5 296 - 0,2 114 1.013,7
14:46 10,9 9,2 10,4 89,0 10,6 296 - 0,2 126 1.013,7
14:45 10,8 9,1 10,3 89,0 10,7 296 - 0,2 139 1.013,7
14:44 10,8 9,1 10,3 89,0 10,6 296 - 0,2 146 1.013,6
14:43 10,9 9,2 10,4 89,0 10,6 295 14,8 0,2 152 1.013,7
14:42 10,9 9,2 10,4 89,0 10,6 295 - 0,2 171 1.013,7
14:41 10,8 9,0 10,2 88,6 10,6 294 - 0,2 173 1.013,7
14:40 10,8 9,0 10,2 88,6 10,5 293 - 0,2 157 1.013,6
14:39 10,8 9,1 10,3 89,0 10,4 293 13,4 0,2 137 1.013,6
14:38 10,8 9,1 10,3 89,0 10,3 292 - 0,2 120 1.013,6
14:37 10,7 9,0 10,2 89,0 10,1 292 - 0,2 120 1.013,6
14:36 10,7 9,0 10,2 89,0 10,0 291 - 0,2 124 1.013,6
14:35 10,7 9,0 10,2 89,0 10,0 291 - 0,2 134 1.013,6
14:34 10,7 9,0 10,2 89,0 10,2 291 - 0,2 144 1.013,6
14:33 10,7 9,0 10,2 89,0 10,4 291 - 0,2 148 1.013,5
14:32 10,6 8,9 10,1 89,0 10,7 291 - 0,2 145 1.013,5
14:31 10,6 8,9 10,1 89,2 10,9 290 - 0,2 137 1.013,4
14:30 10,6 9,0 10,2 90,0 11,0 290 - 0,2 130 1.013,4
14:29 10,6 9,0 10,2 90,0 11,1 289 - 0,2 128 1.013,4
14:28 10,6 9,0 10,2 90,0 11,1 289 14,3 0,2 132 1.013,4
14:27 10,6 9,0 10,2 90,0 11,2 288 - 0,2 133 1.013,4
14:26 10,6 9,0 10,2 90,0 11,2 288 - 0,2 129 1.013,4
14:25 10,6 9,0 10,2 90,0 11,3 288 - 0,2 126 1.013,4
14:23 10,6 9,0 10,2 90,0 11,4 288 - 0,2 112 1.013,4
14:22 10,6 9,0 10,2 90,0 11,4 288 - 0,2 114 1.013,3
14:21 10,6 9,0 10,2 90,0 11,4 288 - 0,2 120 1.013,3
14:20 10,6 9,0 10,2 90,0 11,3 288 - 0,2 125 1.013,3
14:19 10,7 9,1 10,3 90,0 11,3 289 - 0,2 140 1.013,4
14:18 10,6 9,0 10,2 90,0 11,4 289 - 0,2 157 1.013,3
14:17 10,6 9,0 10,2 90,0 11,5 289 - 0,2 176 1.013,3
14:16 10,5 8,9 10,1 90,0 11,6 288 - 0,2 205 1.013,3
14:15 10,5 8,9 10,1 90,0 11,6 288 - 0,2 217 1.013,2
14:14 10,5 8,9 10,1 90,0 11,7 288 - 0,2 210 1.013,3
14:13 10,5 9,0 10,1 90,3 11,6 288 - 0,2 191 1.013,3
14:12 10,5 9,0 10,1 90,6 11,5 287 - 0,2 171 1.013,2
14:11 10,4 8,9 10,0 90,6 11,2 287 - 0,2 160 1.013,2
14:10 10,4 9,0 10,1 91,0 11,0 287 - 0,2 152 1.013,2
14:09 10,3 8,9 9,9 91,0 10,5 287 - 0,2 144 1.013,2
14:08 10,4 9,0 10,1 91,0 10,1 287 - 0,2 136 1.013,2
14:07 10,3 8,9 9,9 91,0 9,9 287 - 0,2 131 1.013,2
14:06 10,3 8,9 9,9 91,0 9,8 288 - 0,2 130 1.013,2
14:05 10,3 8,9 9,9 91,0 9,8 288 - 0,2 127 1.013,2
14:04 10,3 8,9 9,9 91,0 9,9 288 - 0,2 123 1.013,1
14:03 10,3 8,9 9,9 91,0 10,2 288 - 0,2 128 1.013,1
14:02 10,2 8,8 9,8 91,0 10,6 288 - 0,2 142 1.013,1
14:01 10,2 8,8 9,8 91,0 10,9 288 - 0,2 152 1.013,1
14:00 10,2 8,8 9,8 91,0 10,9 288 - 0,2 161 1.013,1
 
13:59 10,1 8,7 9,7 91,0 11,0 289 - 0,2 129 1.013,0
13:58 10,1 8,7 9,7 91,0 11,1 289 - 0,2 125 1.013,0
13:57 10,1 8,7 9,7 91,0 11,1 290 - 0,2 114 1.013,0
13:56 10,1 8,7 9,7 91,0 11,1 291 - 0,2 102 1.013,0
13:55 10,1 8,7 9,7 91,0 11,2 292 - 0,2 94 1.013,0
13:54 10,1 8,7 9,7 91,0 11,3 293 - 0,2 95 1.013,0
13:53 10,1 8,7 9,7 91,0 11,4 294 - 0,2 90 1.013,0
13:52 10,2 8,8 9,8 91,0 11,6 295 - 0,2 83 1.012,9
13:51 10,2 8,8 9,8 91,0 11,7 296 - 0,2 83 1.012,9
13:50 10,2 8,7 9,8 90,6 11,9 297 - 0,2 88 1.012,9
13:49 10,3 8,7 9,9 90,0 11,9 298 - 0,2 96 1.012,8
13:48 10,3 8,8 9,9 90,5 11,7 299 - 0,2 92 1.013,0
13:47 10,4 8,9 10,0 90,4 11,5 299 - 0,2 78 1.013,1
13:46 10,4 8,8 10,0 90,0 11,3 300 - 0,2 66 1.013,1
13:45 10,4 9,0 10,1 91,0 11,0 300 - 0,2 56 1.013,1
13:44 10,4 9,0 10,1 91,0 10,7 300 - 0,2 52 1.013,1
13:43 10,4 9,0 10,1 91,0 10,4 299 - 0,2 51 1.013,1
13:42 10,5 9,1 10,2 91,0 10,3 299 - 0,2 47 1.013,1
13:41 10,6 9,2 10,3 91,0 10,2 299 - 0,2 33 1.013,0
13:40 10,6 9,2 10,3 91,0 10,3 298 - 0,2 30 1.013,1
13:39 10,7 9,3 10,4 91,0 10,3 297 - 0,2 24 1.012,9
13:38 10,7 9,3 10,4 91,3 10,6 296 - 0,2 30 1.012,8
13:37 10,7 9,5 10,5 92,0 11,2 295 - 0,2 46 1.012,6
13:36 10,6 9,4 10,4 92,0 11,9 293 - 0,2 57 1.012,5
13:35 10,5 9,3 10,3 92,0 12,5 292 17,0 0,2 52 1.012,5
13:34 10,5 9,3 10,3 92,0 12,9 290 17,4 0,2 57 1.012,5
13:33 10,6 9,4 10,4 92,0 13,1 288 - 0,2 51 1.012,5
13:32 10,7 9,5 10,5 92,0 13,0 286 - 0,2 52 1.012,6
13:31 10,6 9,4 10,4 92,0 12,8 284 - 0,2 56 1.012,6
13:30 10,6 9,3 10,3 91,5 12,7 283 - 0,2 62 1.012,5
13:29 10,5 9,1 10,2 91,0 12,8 281 - 0,2 54 1.012,5
13:28 10,5 9,1 10,2 91,0 12,9 280 - 0,2 40 1.012,5
13:27 10,5 9,1 10,2 91,0 13,1 279 - 0,2 32 1.012,4
13:26 10,6 9,2 10,3 91,0 13,2 278 16,5 0,2 39 1.012,4
13:25 10,6 9,2 10,3 91,0 13,3 277 - 0,0 49 1.012,4
13:24 10,6 9,2 10,3 91,0 13,4 277 - 0,0 61 1.012,4
13:23 10,5 9,1 10,2 91,0 13,6 276 - 0,0 73 1.012,3
13:22 10,5 8,9 10,1 90,1 13,9 276 17,0 0,0 89 1.012,3
13:21 10,4 8,8 10,0 90,0 14,5 276 - 0,0 97 1.012,2
13:20 10,4 8,8 10,0 90,0 15,3 276 - 0,0 91 1.012,1
13:19 10,3 8,7 9,9 90,0 15,8 275 - 0,0 74 1.012,0
13:18 10,3 8,7 9,9 90,0 16,1 275 - 0,0 70 1.011,6
13:17 10,4 8,8 10,0 90,0 16,2 275 21,9 0,0 68 1.011,9
13:16 10,5 8,9 10,1 90,0 16,3 275 - 0,0 63 1.012,1
13:15 10,6 9,0 10,1 89,8 16,2 275 - 0,0 63 1.012,1
13:14 10,6 8,9 10,1 89,0 16,1 274 - 0,0 65 1.012,0
13:13 10,8 9,1 10,3 89,0 16,1 274 19,2 0,0 61 1.012,1
13:12 10,9 9,1 10,3 88,4 16,4 274 - 0,0 38 1.012,1
13:11 10,9 8,9 10,2 87,2 16,9 273 - 0,0 38 1.011,9
13:10 11,0 8,8 10,2 86,1 17,2 273 - 0,0 40 1.011,9
13:09 11,1 8,8 10,3 86,0 17,4 272 21,5 0,0 46 1.011,7
13:08 11,2 9,0 10,4 86,4 17,6 271 21,5 0,0 64 1.011,7
13:07 11,3 9,1 10,5 86,5 17,7 270 - 0,0 66 1.011,8
13:06 11,3 9,0 10,5 86,0 17,7 269 - 0,0 55 1.011,8
13:05 11,2 8,9 10,4 85,9 17,6 269 - 0,0 66 1.011,6
13:04 11,3 8,9 10,4 85,1 17,7 268 - 0,0 80 1.011,5
13:03 11,3 8,9 10,4 85,0 18,0 267 - 0,0 68 1.011,5
13:02 11,3 8,8 10,3 84,6 18,3 266 - 0,0 56 1.011,4
13:01 11,4 8,8 10,4 84,0 18,4 265 22,4 0,0 62 1.011,3
13:00 11,5 9,0 10,6 84,7 18,4 265 22,4 0,0 69 1.011,3
 
12:59 11,5 8,9 10,5 84,2 18,5 264 21,9 0,0 61 1.011,3
12:58 11,6 8,8 10,5 83,1 18,3 263 - 0,0 63 1.011,3
12:57 11,6 8,8 10,5 83,0 18,0 263 21,9 0,0 71 1.011,3
12:56 11,6 8,8 10,5 83,0 17,5 263 21,5 0,0 83 1.011,4
12:55 11,6 8,8 10,5 83,0 17,2 262 - 0,0 99 1.011,4
12:54 11,6 8,8 10,5 83,0 17,0 262 20,1 0,0 110 1.011,6
12:53 11,6 8,8 10,5 83,0 16,5 262 - 0,0 122 1.011,5
12:52 11,5 8,7 10,4 83,2 16,1 262 19,2 0,0 151 1.011,4
12:51 11,6 9,0 10,6 84,0 15,9 262 19,7 0,0 183 1.011,6
12:50 11,6 9,0 10,6 84,0 16,0 262 - 0,0 207 1.011,6
12:49 11,6 9,0 10,6 84,0 16,3 262 - 0,0 216 1.011,5
12:48 11,5 8,8 10,4 83,3 16,5 262 - 0,0 232 1.011,4
12:47 11,4 8,6 10,3 83,0 16,8 261 - 0,0 242 1.011,2
12:46 11,4 8,8 10,4 84,1 17,2 261 20,6 0,0 218 1.011,3
12:45 11,5 9,1 10,6 85,0 17,5 261 20,6 0,0 191 1.011,3
12:44 11,5 9,0 10,5 84,6 17,6 261 - 0,0 182 1.011,3
12:43 11,5 8,9 10,5 84,0 17,3 261 - 0,0 172 1.011,1
12:42 11,5 9,0 10,6 84,8 17,0 261 21,5 0,0 149 1.011,2
12:41 11,6 9,2 10,7 85,0 16,6 262 20,1 0,0 146 1.011,4
12:40 11,6 9,2 10,7 85,0 16,3 262 - 0,0 142 1.011,4
12:39 11,6 9,2 10,7 85,0 16,1 263 - 0,0 124 1.011,4
12:38 11,5 9,0 10,5 84,6 16,0 263 - 0,0 153 1.011,4
12:37 11,5 9,0 10,5 84,6 16,1 264 19,7 0,0 185 1.011,3
12:36 11,4 9,0 10,5 85,0 16,6 265 - 0,0 163 1.011,4
12:35 11,4 8,8 10,4 84,1 17,3 266 - 0,0 129 1.011,3
12:34 11,4 8,8 10,4 83,8 17,9 266 - 0,0 126 1.011,2
12:33 11,4 8,6 10,3 83,0 18,2 267 21,9 0,0 138 1.011,0
12:32 11,4 8,7 10,3 83,5 18,4 267 22,4 0,0 135 1.010,9
12:31 11,5 8,8 10,4 83,4 18,7 268 24,1 0,0 112 1.011,2
12:30 11,6 8,8 10,5 83,0 18,7 268 24,1 0,0 104 1.011,2
12:29 11,6 8,6 10,4 82,1 18,5 268 - 0,0 101 1.011,0
12:28 11,6 8,7 10,4 82,4 18,2 268 21,9 0,0 119 1.011,1
12:27 11,6 8,8 10,5 82,7 17,9 269 - 0,0 139 1.011,1
12:26 11,6 8,6 10,4 82,0 17,6 269 - 0,0 153 1.011,1
12:25 11,6 8,8 10,5 82,7 17,2 268 - 0,0 141 1.011,1
12:24 11,7 8,9 10,6 83,0 16,8 268 - 0,0 143 1.011,2
12:23 11,6 8,6 10,4 82,1 16,4 268 - 0,0 123 1.011,3
12:22 11,6 8,7 10,4 82,3 16,3 267 19,7 0,0 97 1.011,1
12:21 11,6 8,8 10,5 83,0 16,2 267 20,1 0,0 71 1.011,1
12:20 11,6 8,8 10,5 83,0 16,2 266 - 0,0 69 1.011,3
12:19 11,6 8,8 10,5 83,0 16,3 265 - 0,0 83 1.011,3
12:18 11,6 8,8 10,5 83,0 16,5 265 - 0,0 104 1.011,2
12:17 11,6 8,6 10,4 82,0 16,9 264 - 0,0 108 1.011,2
12:16 11,6 8,4 10,3 81,0 17,2 263 - 0,0 94 1.011,0
12:15 11,6 8,4 10,3 81,0 17,3 262 20,6 0,0 90 1.010,9
12:14 11,6 8,4 10,3 81,0 17,5 262 20,6 0,0 82 1.010,9
12:13 11,5 8,5 10,2 81,7 17,4 261 - 0,0 51 1.011,0
12:12 11,6 8,6 10,4 82,0 17,2 261 - 0,0 46 1.011,0
12:11 11,6 8,5 10,3 81,1 17,0 261 - 0,0 56 1.011,0
12:10 11,6 8,5 10,3 81,5 16,9 261 21,9 0,0 71 1.010,9
12:09 11,6 8,6 10,4 82,0 16,9 261 - 0,0 72 1.010,9
12:08 11,6 8,6 10,4 82,0 16,8 260 21,0 0,0 66 1.010,9
12:07 11,6 8,6 10,4 82,0 16,8 260 - 0,0 77 1.010,8
12:06 11,6 8,5 10,3 81,2 17,0 260 - 0,0 73 1.011,0
12:05 11,7 8,5 10,4 81,0 17,3 259 - 0,0 67 1.010,9
12:04 11,7 8,5 10,3 80,7 17,6 259 - 0,0 74 1.011,0
12:03 11,7 8,4 10,3 80,0 18,0 258 21,5 0,0 83 1.010,7
12:02 11,8 8,5 10,4 80,0 18,5 258 - 0,0 85 1.010,8
12:01 11,8 8,5 10,4 80,0 18,7 258 - 0,0 77 1.010,7
12:00 11,8 8,5 10,4 80,0 18,4 258 21,5 0,0 81 1.010,7
 
11:59 11,8 8,5 10,4 80,0 18,0 259 22,4 0,0 96 1.010,8
11:58 11,8 8,5 10,4 80,0 17,5 259 21,5 0,0 94 1.010,9
11:57 11,8 8,5 10,4 80,0 16,9 260 - 0,0 89 1.010,9
11:56 11,8 8,4 10,3 79,4 16,4 261 - 0,0 117 1.010,9
11:55 11,7 8,2 10,2 79,0 16,0 261 19,7 0,0 121 1.011,0
11:54 11,7 8,2 10,2 79,0 16,0 262 - 0,0 137 1.011,0
11:53 11,7 8,2 10,2 79,3 16,2 262 - 0,0 168 1.010,9
11:52 11,7 8,3 10,2 79,7 16,3 263 20,6 0,0 173 1.010,8
11:51 11,7 8,3 10,2 79,6 16,5 263 20,1 0,0 166 1.011,2
11:50 11,7 8,4 10,3 80,0 16,5 264 - 0,0 157 1.011,1
11:49 11,7 8,4 10,3 80,0 16,5 264 19,7 0,0 130 1.011,0
11:48 11,7 8,4 10,3 80,0 16,5 264 - 0,0 133 1.010,9
11:47 11,7 8,3 10,2 79,8 16,5 265 - 0,0 149 1.011,0
11:46 11,7 8,3 10,2 79,4 16,4 265 19,7 0,0 171 1.010,8
11:45 11,7 8,3 10,2 79,5 16,5 265 19,7 0,0 188 1.010,9
11:44 11,6 8,2 10,1 79,7 16,5 265 - 0,0 147 1.010,9
11:43 11,6 8,3 10,2 80,0 16,5 265 - 0,0 123 1.010,8
11:42 11,7 8,4 10,3 80,1 16,5 265 - 0,0 89 1.010,8
11:41 11,7 8,5 10,4 81,0 16,5 264 19,7 0,0 73 1.010,9
11:40 11,7 8,5 10,3 80,6 16,6 264 - 0,0 75 1.010,9
11:39 11,8 8,4 10,3 79,5 16,7 264 - 0,0 108 1.010,8
11:38 11,7 8,2 10,2 79,0 16,7 263 20,6 0,0 120 1.010,7
11:37 11,7 8,3 10,2 79,8 16,7 263 - 0,0 99 1.010,8
11:36 11,7 8,3 10,2 79,7 16,7 262 20,1 0,0 121 1.010,8
11:35 11,7 8,2 10,2 79,0 16,7 262 - 0,0 133 1.010,8
11:34 11,7 8,2 10,2 79,0 16,6 261 19,7 0,0 133 1.010,7
11:33 11,7 8,2 10,2 79,0 16,6 261 21,5 0,0 129 1.010,7
11:32 11,7 8,3 10,2 79,7 16,6 261 - 0,0 134 1.010,7
11:31 11,7 8,4 10,3 80,0 16,6 261 19,7 0,0 134 1.010,8
11:30 11,7 8,3 10,3 79,9 16,5 261 - 0,0 142 1.010,8
11:29 11,7 8,2 10,2 79,0 16,3 261 - 0,0 149 1.010,6
11:27 11,7 8,4 10,3 80,0 16,2 261 21,0 0,0 149 1.010,7
11:26 11,7 8,4 10,3 80,0 16,0 261 - 0,0 217 1.010,6
11:25 11,7 8,4 10,3 80,0 16,0 262 19,2 0,0 215 1.010,6
11:24 11,7 8,3 10,2 79,8 16,2 262 - 0,0 174 1.010,8
11:23 11,6 8,1 10,1 79,0 16,7 262 - 0,0 151 1.010,5
11:22 11,6 8,1 10,1 79,0 17,4 262 - 0,0 157 1.010,4
11:21 11,7 8,2 10,2 79,0 18,0 262 22,4 0,0 164 1.010,3
11:20 11,6 8,1 10,1 79,0 18,6 262 23,2 0,0 138 1.010,4
11:19 11,7 8,2 10,2 79,0 18,9 262 23,3 0,0 143 1.010,4
11:18 11,6 8,1 10,1 79,0 18,9 262 22,4 0,0 146 1.010,4
11:17 11,6 8,1 10,1 79,0 18,6 262 - 0,0 142 1.010,6
11:16 11,6 8,1 10,1 79,0 18,1 262 - 0,0 147 1.010,5
11:15 11,5 8,1 10,0 79,6 17,5 262 - 0,0 150 1.010,4
11:14 11,5 8,3 10,2 80,8 16,9 262 21,9 0,0 143 1.010,6
11:13 11,5 8,4 10,2 81,0 16,5 262 - 0,0 154 1.010,7
11:12 11,5 8,4 10,2 81,0 16,2 262 - 0,0 178 1.010,8
11:11 11,6 8,5 10,3 81,5 15,8 262 - 0,0 192 1.010,8
11:10 11,5 8,4 10,2 81,5 15,5 262 - 0,0 213 1.010,6
11:09 11,5 8,5 10,2 81,7 15,5 262 - 0,0 195 1.010,6
11:08 11,4 8,4 10,2 82,0 15,5 262 - 0,0 137 1.010,7
11:07 11,4 8,4 10,2 82,0 15,3 262 19,7 0,0 104 1.010,4
11:06 11,3 8,3 10,1 82,0 15,0 262 20,6 0,0 88 1.010,7
11:05 11,3 8,3 10,1 82,0 14,9 261 - 0,0 85 1.010,8
11:04 11,3 8,3 10,1 82,0 14,8 261 - 0,0 94 1.010,7
11:03 11,3 8,3 10,1 82,0 14,8 262 - 0,0 85 1.010,6
11:02 11,3 8,3 10,1 82,0 14,8 262 17,9 0,0 83 1.010,5
11:01 11,2 8,2 10,0 82,0 15,1 262 18,3 0,0 72 1.010,6
11:00 11,2 8,2 10,0 82,0 15,4 262 - 0,0 63 1.010,5
 
10:59 11,2 8,3 10,0 82,4 15,7 262 - 0,0 66 1.010,5
10:58 11,2 8,4 10,1 83,0 16,0 262 - 0,0 69 1.010,5
10:57 11,2 8,3 10,0 82,4 16,0 263 - 0,0 69 1.010,5
10:56 11,2 8,4 10,1 82,8 16,0 263 19,2 0,0 67 1.010,5
10:55 11,2 8,3 10,0 82,1 16,0 263 - 0,0 59 1.010,4
10:54 11,1 8,1 9,9 82,0 15,9 263 20,1 0,0 54 1.010,4
10:53 11,1 8,1 9,8 81,6 15,9 263 - 0,0 52 1.010,4
10:52 11,1 8,0 9,8 81,0 15,9 263 - 0,0 47 1.010,5
10:51 11,1 7,8 9,7 80,3 15,6 262 - 0,0 44 1.010,5
10:50 11,1 7,8 9,7 80,0 15,3 262 19,7 0,0 41 1.010,4
10:49 11,1 8,0 9,8 81,0 15,1 261 18,8 0,0 40 1.010,4
10:48 11,1 8,0 9,8 81,0 15,0 260 18,3 0,0 39 1.010,5
10:47 11,1 7,9 9,7 80,6 15,0 259 - 0,0 40 1.010,5
10:46 11,1 7,9 9,7 80,6 15,1 259 18,3 0,0 40 1.010,5
10:45 11,1 7,8 9,7 80,3 15,1 258 18,3 0,0 43 1.010,4
10:44 11,1 7,8 9,7 80,0 15,3 257 - 0,0 50 1.010,3
10:43 11,2 7,9 9,8 80,0 15,7 256 19,2 0,0 63 1.010,3
10:42 11,3 8,0 9,9 80,0 16,3 256 - 0,0 74 1.010,3
10:41 11,3 8,0 9,9 80,0 16,6 255 20,1 0,0 71 1.010,1
10:40 11,3 8,0 9,9 80,0 16,7 254 21,5 0,0 66 1.010,2
10:39 11,4 8,2 10,1 80,8 16,7 253 20,6 0,0 71 1.010,3
10:38 11,3 8,0 9,9 80,1 16,5 253 - 0,0 82 1.010,4
10:37 11,3 8,0 9,9 80,0 15,8 252 - 0,0 93 1.010,4
10:36 11,3 8,0 9,9 80,0 15,0 252 - 0,0 97 1.010,3
10:35 11,3 8,1 9,9 80,7 14,4 252 20,6 0,0 96 1.010,4
10:34 11,3 8,3 10,0 81,6 14,1 252 - 0,0 81 1.010,6
10:33 11,3 8,2 10,0 81,1 14,0 252 - 0,0 66 1.010,5
10:32 11,2 8,1 9,9 81,0 14,1 253 - 0,0 54 1.010,4
10:31 11,2 8,1 9,9 81,0 14,4 254 - 0,0 48 1.010,4
10:30 11,2 8,1 9,9 81,0 14,8 255 - 0,0 43 1.010,2
10:29 11,2 8,1 9,9 81,0 15,2 256 18,3 0,0 40 1.010,4
10:28 11,2 8,1 9,9 81,0 15,2 256 - 0,0 39 1.010,3
10:27 11,2 8,1 9,9 81,0 15,1 256 18,3 0,0 40 1.010,3
10:26 11,2 8,1 9,9 81,0 15,0 256 - 0,0 49 1.010,3
10:25 11,1 7,9 9,8 80,8 14,8 255 - 0,0 63 1.010,4
10:24 11,1 7,9 9,7 80,4 14,6 254 - 0,0 74 1.010,3
10:23 11,1 8,0 9,8 81,0 14,4 253 - 0,0 82 1.010,4
10:22 11,0 7,9 9,7 81,0 14,6 252 - 0,0 87 1.010,3
10:21 11,0 7,9 9,7 81,0 15,1 252 - 0,0 88 1.010,3
10:20 11,0 7,9 9,7 81,0 15,4 251 - 0,0 77 1.010,1
10:19 11,1 7,9 9,7 80,5 15,4 251 20,6 0,0 65 1.010,1
10:18 11,1 7,6 9,6 79,0 15,2 250 18,8 0,0 58 1.010,0
10:17 11,3 7,9 9,8 79,6 15,3 250 20,1 0,0 54 1.010,0
10:16 11,3 7,9 9,8 79,4 15,5 250 21,0 0,0 54 1.010,0
10:15 11,3 7,9 9,9 79,8 15,4 250 19,2 0,0 63 1.009,8
10:14 11,3 8,0 9,9 80,0 15,0 249 19,7 0,0 74 1.010,1
10:13 11,3 8,0 9,9 80,0 14,4 248 - 0,0 88 1.010,1
10:12 11,3 8,0 9,9 80,0 14,2 248 17,4 0,0 98 1.010,1
10:11 11,4 8,1 10,0 80,0 14,5 248 - 0,0 100 1.010,1
10:10 11,4 7,9 9,9 79,3 15,1 247 18,3 0,0 96 1.010,1
10:09 11,3 7,8 9,8 79,0 15,6 247 - 0,0 92 1.010,0
10:08 11,3 7,6 9,7 78,1 16,0 248 19,7 0,0 91 1.009,8
10:07 11,3 7,6 9,7 78,0 16,2 249 19,7 0,0 88 1.009,9
10:06 11,3 7,7 9,7 78,5 16,4 250 - 0,0 86 1.009,8
10:05 11,2 7,7 9,7 79,0 16,2 251 - 0,0 79 1.009,9
10:04 11,2 7,7 9,7 79,0 16,0 252 19,2 0,0 72 1.009,9
10:03 11,2 7,7 9,7 79,0 15,8 253 - 0,0 71 1.010,0
10:02 11,2 7,7 9,7 79,0 15,6 253 - 0,0 73 1.010,0
10:01 11,2 7,7 9,7 79,0 15,5 253 - 0,0 75 1.010,0
10:00 11,2 7,8 9,7 79,5 15,5 253 - 0,0 74 1.010,0
 
09:59 11,2 7,8 9,7 79,4 15,5 253 - 0,0 65 1.009,8
09:58 11,2 7,8 9,8 79,8 15,5 252 - 0,0 65 1.009,8
09:57 11,2 7,9 9,8 80,0 15,4 252 20,6 0,0 71 1.010,0
09:56 11,2 7,9 9,8 80,0 15,3 252 - 0,0 71 1.010,1
09:55 11,2 7,9 9,8 80,0 15,2 252 - 0,0 68 1.010,0
09:54 11,1 7,8 9,7 80,0 15,0 252 - 0,0 67 1.010,1
09:53 11,1 7,8 9,7 80,0 15,0 252 - 0,0 70 1.010,1
09:52 11,1 7,8 9,7 80,0 15,1 252 - 0,0 72 1.010,0
09:51 11,1 7,8 9,7 80,0 14,9 252 - 0,0 73 1.010,0
09:50 11,1 7,9 9,7 80,4 14,5 252 17,9 0,0 66 1.010,0
09:49 11,1 8,0 9,8 81,0 14,2 252 17,4 0,0 61 1.010,1
09:48 11,1 8,0 9,8 81,0 14,0 252 - 0,0 57 1.010,2
09:47 11,1 7,9 9,7 80,4 13,7 252 - 0,0 58 1.010,2
09:46 11,1 7,9 9,8 80,8 13,6 252 - 0,0 60 1.010,2
09:45 11,1 7,8 9,7 80,1 13,7 253 - 0,0 65 1.010,1
09:44 11,0 7,7 9,6 80,0 13,8 253 - 0,0 60 1.010,1
09:43 11,0 7,7 9,6 80,0 13,9 254 - 0,0 51 1.010,0
09:42 11,1 7,9 9,7 80,5 14,0 254 - 0,0 47 1.010,0
09:41 11,1 8,0 9,8 81,0 14,2 255 - 0,0 49 1.010,1
09:40 11,1 7,8 9,7 80,2 14,4 255 - 0,0 49 1.010,1
09:39 11,0 7,7 9,6 80,1 14,6 256 17,9 0,0 48 1.009,9
09:38 11,0 7,9 9,7 81,0 14,7 256 18,8 0,0 48 1.010,0
09:37 10,9 7,8 9,6 81,4 14,6 255 18,8 0,0 56 1.010,1
09:36 10,8 7,8 9,6 82,0 14,4 255 19,2 0,0 61 1.010,1
09:35 10,8 8,0 9,6 82,7 13,9 255 17,9 0,0 62 1.010,2
09:34 10,8 8,0 9,7 83,0 13,3 255 - 0,0 63 1.010,2
09:33 10,8 8,2 9,8 84,0 12,9 254 - 0,0 62 1.010,3
09:32 10,8 8,2 9,8 84,0 12,7 254 - 0,0 61 1.010,2
09:31 10,8 8,2 9,8 84,0 12,5 254 - 0,0 62 1.010,2
09:30 10,8 8,2 9,8 84,0 12,4 254 15,6 0,0 67 1.010,2
09:29 10,8 8,2 9,8 84,0 12,4 254 15,6 0,0 69 1.010,3
09:28 10,8 8,2 9,8 84,0 12,4 254 - 0,0 70 1.010,3
09:27 10,8 8,2 9,8 83,9 12,4 254 - 0,0 70 1.010,3
09:26 10,8 8,0 9,7 83,0 12,4 254 - 0,0 65 1.010,3
09:25 10,7 7,9 9,5 82,6 12,4 253 - 0,0 51 1.010,3
09:24 10,6 7,8 9,4 82,6 12,5 253 15,6 0,0 38 1.010,2
09:23 10,7 8,1 9,6 83,7 12,6 253 16,1 0,0 26 1.010,3
09:22 10,7 8,1 9,7 84,0 12,8 253 - 0,0 26 1.010,3
09:21 10,6 8,0 9,6 84,0 12,9 253 - 0,0 26 1.010,2
09:20 10,7 8,1 9,7 84,0 12,9 253 - 0,0 26 1.010,2
09:19 10,7 8,0 9,6 83,6 13,0 253 - 0,0 26 1.010,3
09:18 10,7 7,9 9,6 83,0 13,2 254 - 0,0 26 1.010,2
09:17 10,8 7,9 9,6 82,3 13,3 254 - 0,0 27 1.010,2
09:16 10,8 7,8 9,6 82,0 13,3 255 17,4 0,0 29 1.010,1
09:15 10,8 7,8 9,6 82,0 13,3 255 - 0,0 31 1.010,2
09:14 10,7 7,8 9,5 82,3 13,3 255 - 0,0 34 1.010,1
09:13 10,7 7,9 9,6 83,0 13,2 255 - 0,0 37 1.010,2
09:12 10,7 7,9 9,6 83,0 13,1 255 - 0,0 35 1.010,2
09:11 10,7 7,9 9,6 83,0 13,1 255 - 0,0 32 1.010,1
09:10 10,7 7,9 9,6 83,0 13,3 255 - 0,0 30 1.010,2
09:09 10,6 7,8 9,5 83,0 13,4 255 - 0,0 29 1.010,0
09:08 10,6 7,8 9,5 83,0 13,5 255 - 0,0 25 1.009,9
09:07 10,6 7,8 9,5 83,0 13,5 256 17,0 0,0 20 1.009,9
09:06 10,5 7,9 9,4 83,7 13,6 256 - 0,0 19 1.010,0
09:05 10,4 7,7 9,3 83,2 13,6 256 - 0,0 18 1.010,0
09:04 10,3 7,6 9,2 83,1 13,5 256 16,5 0,0 20 1.010,0
09:03 10,3 7,7 9,3 84,2 13,2 256 17,4 0,0 21 1.010,1
09:02 10,2 7,8 9,3 85,0 12,8 256 - 0,0 21 1.010,3
09:01 10,2 7,7 9,2 84,5 12,5 256 - 0,0 19 1.010,3
09:00 10,2 7,7 9,2 84,7 12,3 255 - 0,0 16 1.010,2
 
08:59 10,2 7,7 9,2 84,2 12,1 255 - 0,0 13 1.010,2
08:58 10,3 7,5 9,2 83,0 12,3 254 - 0,0 12 1.010,2
08:57 10,5 7,6 9,3 82,0 12,7 253 - 0,0 11 1.010,2
08:56 10,8 7,8 9,6 82,0 13,1 253 - 0,0 11 1.010,1
08:55 10,9 7,7 9,6 80,8 13,4 252 17,9 0,0 11 1.010,1
08:54 11,0 7,7 9,6 80,0 13,4 251 17,4 0,0 12 1.010,0
08:53 11,0 7,7 9,6 80,1 13,3 251 18,3 0,0 15 1.010,0
08:52 11,1 7,9 9,8 80,9 13,1 251 17,0 0,0 19 1.010,1
08:51 11,1 7,7 9,6 79,5 12,8 250 - 0,0 18 1.010,1
08:50 11,1 7,6 9,6 79,0 12,7 250 - 0,0 18 1.010,1
08:49 11,1 7,6 9,6 79,0 12,8 249 16,1 0,0 16 1.010,0
08:48 11,1 7,6 9,6 79,0 12,9 249 - 0,0 16 1.010,0
08:47 11,1 7,6 9,6 79,0 13,0 249 - 0,0 15 1.010,0
08:46 11,1 7,4 9,5 78,2 13,3 249 - 0,0 16 1.009,9
08:45 11,1 7,5 9,5 78,7 13,7 249 - 0,0 18 1.010,0
08:44 11,1 7,3 9,4 77,6 14,1 250 - 0,0 19 1.009,9
08:43 11,1 7,2 9,4 77,0 14,5 251 18,3 0,0 18 1.009,7
08:42 11,1 7,4 9,4 77,7 14,8 251 19,2 0,0 16 1.009,7
08:41 11,1 7,6 9,6 78,9 15,1 252 - 0,0 14 1.009,9
08:40 11,1 7,6 9,6 78,9 15,0 253 - 0,0 14 1.009,9
08:39 11,0 7,4 9,4 78,3 14,6 254 - 0,0 14 1.009,9
08:38 11,1 7,6 9,6 79,0 14,2 255 - 0,0 12 1.010,0
08:37 11,1 7,6 9,6 79,0 14,0 256 - 0,0 12 1.010,0
08:36 11,1 7,6 9,6 79,0 13,9 257 - 0,0 11 1.010,1
08:35 11,1 7,4 9,5 78,1 13,9 258 - 0,0 11 1.010,0
08:34 11,0 7,3 9,4 78,0 14,1 259 - 0,0 11 1.010,0
08:33 11,0 7,3 9,4 78,0 14,2 259 - 0,0 12 1.009,9
08:31 11,0 7,4 9,4 78,4 14,2 260 - 0,0 11 1.010,0
08:30 11,0 7,5 9,5 78,8 14,2 260 - 0,0 9 1.009,9
08:29 11,1 7,8 9,7 79,9 14,1 261 17,4 0,0 8 1.010,0
08:28 11,1 7,7 9,7 79,8 14,1 261 - 0,0 7 1.010,0
08:27 11,1 7,5 9,5 78,7 14,1 261 - 0,0 7 1.009,9
08:26 11,0 7,3 9,4 78,0 14,1 261 17,4 0,0 5 1.009,9
08:25 11,0 7,4 9,4 78,7 14,3 261 17,4 0,0 5 1.009,9
08:24 11,1 7,4 9,5 78,1 14,6 261 - 0,0 5 1.009,9
08:23 11,0 7,1 9,3 77,1 14,8 262 - 0,0 5 1.009,9
08:22 11,0 7,4 9,4 78,3 14,8 262 - 0,0 5 1.009,8
08:21 11,1 7,5 9,5 78,7 15,0 262 - 0,0 5 1.009,9
08:20 11,1 7,4 9,5 78,0 15,3 262 - 0,0 5 1.009,7
08:19 11,1 7,2 9,3 76,7 15,5 262 - 0,0 4 1.009,7
08:18 11,0 7,1 9,3 76,8 15,5 262 18,8 0,0 0 1.009,7
08:17 11,0 7,1 9,3 77,0 15,5 262 - 0,0 0 1.009,7
08:16 11,0 7,2 9,3 77,3 15,4 261 - 0,0 0 1.009,7
08:15 11,1 7,5 9,5 78,4 15,4 261 18,8 0,0 0 1.009,8
08:14 11,1 7,5 9,5 78,4 15,3 261 - 0,0 0 1.009,8
08:13 11,1 7,4 9,5 78,0 15,2 260 - 0,0 0 1.009,8
08:12 11,0 7,3 9,4 78,0 15,0 260 19,2 0,0 0 1.009,8
08:11 11,0 7,3 9,4 78,1 14,9 260 18,3 0,0 0 1.009,8
08:10 11,0 7,4 9,4 78,7 14,7 259 - 0,0 0 1.009,8
08:09 11,0 7,4 9,4 78,4 14,3 259 - 0,0 0 1.009,7
08:08 11,0 7,4 9,4 78,5 13,9 259 - 0,0 0 1.009,7
08:07 11,0 7,3 9,4 78,0 13,6 259 17,0 0,0 0 1.009,8
08:06 11,0 7,5 9,5 78,8 13,4 258 17,0 0,0 0 1.009,8
08:05 11,1 7,4 9,5 77,9 13,4 258 - 0,0 0 1.009,8
08:04 11,0 7,2 9,3 77,3 13,3 258 - 0,0 0 1.009,6
08:03 11,0 7,3 9,4 78,0 13,3 257 17,4 0,0 0 1.009,5
08:02 11,1 7,5 9,5 78,6 13,5 257 - 0,0 0 1.009,6
08:01 11,1 7,6 9,6 79,0 13,9 257 17,0 0,0 0 1.009,7
08:00 11,1 7,4 9,5 78,2 14,2 257 - 0,0 0 1.009,7
 
07:59 11,0 7,0 9,2 76,3 14,4 257 - 0,0 0 1.009,4
07:58 11,0 7,3 9,4 77,9 14,5 257 18,8 0,0 0 1.009,4
07:57 11,1 7,6 9,6 79,0 14,7 257 - 0,0 0 1.009,6
07:56 11,1 7,6 9,6 79,0 14,9 257 17,9 0,0 0 1.009,7
07:55 11,1 7,5 9,5 78,3 14,8 257 - 0,0 0 1.009,6
07:54 11,1 7,2 9,4 77,1 14,6 257 - 0,0 0 1.009,5
07:53 11,0 7,2 9,3 77,2 14,4 258 - 0,0 0 1.009,6
07:52 11,1 7,4 9,5 78,0 14,3 258 17,9 0,0 0 1.009,7
07:51 11,1 7,4 9,5 78,0 14,4 258 - 0,0 0 1.009,8
07:50 11,0 7,2 9,3 77,4 14,4 258 - 0,0 0 1.009,7
07:49 11,0 7,0 9,2 76,3 14,3 258 17,9 0,0 0 1.009,6
07:48 11,0 7,4 9,4 78,7 14,1 257 18,3 0,0 0 1.009,7
07:47 11,1 7,6 9,6 79,0 13,9 257 - 0,0 0 1.009,9
07:46 11,1 7,7 9,6 79,4 13,7 256 - 0,0 0 1.009,8
07:45 11,1 7,7 9,6 79,5 13,4 255 - 0,0 0 1.009,8
07:44 11,0 7,4 9,4 78,4 13,1 254 - 0,0 0 1.009,8
07:43 11,0 7,5 9,5 78,8 12,9 254 17,4 0,0 0 1.009,8
07:42 11,0 7,3 9,4 78,1 12,6 253 - 0,0 0 1.009,8
07:41 11,0 7,3 9,4 78,0 12,5 253 - 0,0 0 1.009,8
07:40 11,1 7,4 9,5 78,0 12,3 252 - 0,0 0 1.009,8
07:39 11,0 7,4 9,4 78,5 12,4 252 - 0,0 0 1.009,8
07:38 11,0 7,5 9,5 79,0 12,8 252 16,5 0,0 0 1.009,7
07:37 11,1 7,6 9,6 79,0 13,2 252 18,3 0,0 0 1.009,7
07:36 11,1 7,6 9,6 79,0 13,5 252 - 0,0 0 1.009,8
07:35 11,0 7,5 9,5 78,8 13,7 252 - 0,0 0 1.009,6
07:34 11,0 7,4 9,4 78,4 13,8 252 19,7 0,0 0 1.009,7
07:33 11,0 7,5 9,5 79,0 13,9 251 18,3 0,0 0 1.009,8
07:32 11,0 7,5 9,5 79,0 13,8 251 17,4 0,0 0 1.009,8
07:31 11,0 7,5 9,5 79,0 13,9 251 17,4 0,0 0 1.009,9
07:30 11,0 7,5 9,5 78,8 14,0 252 - 0,0 0 1.009,9
07:29 11,0 7,3 9,4 78,0 13,9 252 - 0,0 0 1.009,9
07:28 11,0 7,4 9,4 78,6 13,7 253 - 0,0 0 1.009,8
07:27 11,0 7,6 9,5 79,6 13,6 254 - 0,0 0 1.009,9
07:26 11,1 7,7 9,6 79,3 13,5 255 - 0,0 0 1.009,9
07:25 11,1 7,6 9,6 79,0 13,5 255 - 0,0 0 1.009,9
07:24 11,1 7,7 9,7 79,8 13,5 256 16,5 0,0 0 1.009,9
07:23 11,1 7,6 9,6 79,0 13,6 256 - 0,0 0 1.010,0
07:22 11,1 7,6 9,6 79,0 13,8 256 - 0,0 0 1.009,9
07:21 11,1 7,6 9,6 79,0 13,9 256 - 0,0 0 1.009,9
07:20 11,1 7,6 9,6 79,0 14,1 256 - 0,0 0 1.009,9
07:19 11,1 7,6 9,6 79,0 14,2 256 - 0,0 0 1.010,0
07:18 11,1 7,6 9,6 78,9 14,3 256 - 0,0 0 1.009,9
07:17 11,1 7,5 9,5 78,3 14,3 256 17,9 0,0 0 1.009,7
07:16 11,1 7,6 9,6 79,0 14,2 257 17,4 0,0 0 1.009,9
07:15 11,1 7,6 9,6 79,0 14,2 257 - 0,0 0 1.010,0
07:14 11,1 7,5 9,5 78,3 14,2 257 - 0,0 0 1.009,9
07:13 11,1 7,4 9,5 78,0 14,2 257 - 0,0 0 1.009,9
07:12 11,0 7,3 9,4 78,2 14,2 257 - 0,0 0 1.009,9
07:11 11,0 7,4 9,4 78,7 14,2 257 17,4 0,0 0 1.010,0
07:10 11,0 7,3 9,4 78,0 14,0 256 17,0 0,0 0 1.009,9
07:09 10,9 7,3 9,3 78,6 13,7 256 17,0 0,0 0 1.009,9
07:08 11,0 7,6 9,6 79,8 13,6 255 17,9 0,0 0 1.010,1
07:07 11,0 7,7 9,6 80,0 13,6 254 - 0,0 0 1.010,1
07:06 10,9 7,4 9,4 78,8 13,6 254 - 0,0 0 1.010,1
07:05 10,8 7,1 9,2 78,0 13,7 254 17,0 0,0 0 1.010,1
07:04 10,8 7,2 9,2 78,5 13,9 253 - 0,0 0 1.009,9
07:03 10,8 7,4 9,4 79,7 14,1 253 17,9 0,0 0 1.009,9
07:02 10,7 7,4 9,3 80,0 14,1 253 18,3 0,0 0 1.010,1
07:01 10,7 7,6 9,4 81,0 14,0 252 - 0,0 0 1.010,2
07:00 10,7 7,6 9,4 81,0 14,0 252 - 0,0 0 1.010,2
 
06:59 10,6 7,4 9,3 80,7 14,0 252 - 0,0 0 1.010,2
06:58 10,6 7,3 9,2 80,0 14,0 251 - 0,0 0 1.010,2
06:57 10,6 7,2 9,1 79,4 14,0 251 - 0,0 0 1.009,9
06:56 10,6 7,3 9,2 79,8 14,1 251 19,2 0,0 0 1.010,0
06:55 10,7 7,2 9,2 79,1 14,4 252 - 0,0 0 1.010,0
06:54 10,7 7,2 9,2 79,0 14,8 252 18,3 0,0 0 1.009,9
06:53 10,7 7,1 9,1 78,6 15,2 253 - 0,0 0 1.009,9
06:52 10,7 7,0 9,1 78,0 15,7 254 - 0,0 0 1.010,0
06:51 10,7 7,2 9,2 78,7 16,2 255 19,7 0,0 0 1.009,9
06:50 10,6 7,3 9,2 79,8 16,5 256 21,0 0,0 0 1.010,0
06:49 10,5 7,2 9,1 80,0 16,5 256 20,1 0,0 0 1.010,2
06:48 10,4 7,1 9,0 80,0 16,4 257 20,1 0,0 0 1.010,2
06:47 10,4 7,2 9,0 80,4 16,3 258 19,7 0,0 0 1.010,1
06:46 10,3 7,2 9,0 81,0 16,4 258 - 0,0 0 1.010,1
06:45 10,3 7,2 9,0 81,0 16,7 259 - 0,0 0 1.010,1
06:44 10,2 7,1 8,9 81,0 16,8 260 21,0 0,0 0 1.009,9
06:43 10,3 7,2 9,0 81,0 16,8 260 21,9 0,0 0 1.009,9
06:42 10,3 7,1 9,0 80,7 16,8 261 21,0 0,0 0 1.010,1
06:41 10,4 7,1 9,0 80,0 16,9 261 - 0,0 0 1.010,1
06:40 10,5 7,2 9,1 80,0 17,0 261 20,1 0,0 0 1.010,0
06:39 10,6 7,2 9,1 79,3 17,2 261 21,5 0,0 0 1.010,1
06:38 10,7 7,1 9,1 78,2 17,7 261 - 0,0 0 1.010,0
06:37 10,9 7,1 9,2 77,2 18,2 261 22,8 0,0 0 1.009,8
06:36 11,2 7,4 9,5 77,7 18,4 261 22,8 0,0 0 1.009,7
06:35 11,3 7,4 9,6 77,0 18,1 261 22,8 0,0 0 1.009,8
06:34 11,3 7,5 9,6 77,6 17,5 261 21,9 0,0 0 1.010,1
06:33 11,4 7,7 9,8 78,0 16,7 261 - 0,0 0 1.010,1
06:32 11,3 7,6 9,7 78,0 16,1 261 - 0,0 0 1.010,2
06:31 11,4 7,7 9,7 77,8 15,5 261 18,8 0,0 0 1.010,2
06:30 11,4 7,5 9,7 77,0 15,2 260 19,2 0,0 0 1.010,0
06:29 11,4 7,5 9,7 77,0 15,3 260 19,2 0,0 0 1.010,2
06:28 11,3 7,5 9,6 77,6 15,4 260 20,1 0,0 0 1.010,1
06:27 11,3 7,5 9,6 77,3 15,5 260 - 0,0 0 1.010,0
06:26 11,3 7,3 9,5 76,2 15,4 259 - 0,0 0 1.010,0
06:25 11,3 7,5 9,6 77,2 15,2 259 18,8 0,0 0 1.010,1
06:24 11,3 7,6 9,7 78,0 14,8 258 18,8 0,0 0 1.010,2
06:23 11,3 7,6 9,7 78,0 14,4 257 - 0,0 0 1.010,4
06:22 11,3 7,6 9,7 78,0 14,0 257 - 0,0 0 1.010,3
06:21 11,3 7,8 9,8 78,8 13,8 256 - 0,0 0 1.010,3
06:20 11,3 7,8 9,8 79,0 13,9 255 - 0,0 0 1.010,4
06:19 11,3 7,6 9,7 78,0 14,2 254 - 0,0 0 1.010,2
06:18 11,3 7,6 9,7 78,0 14,5 253 - 0,0 0 1.010,2
06:17 11,3 7,6 9,7 78,0 14,7 252 - 0,0 0 1.010,2
06:16 11,3 7,5 9,6 77,4 14,8 251 - 0,0 0 1.010,2
06:15 11,3 7,4 9,6 77,0 14,7 250 - 0,0 0 1.010,3
06:14 11,2 7,3 9,5 77,1 14,4 250 17,9 0,0 0 1.010,3
06:13 11,2 7,5 9,6 78,0 13,9 249 18,3 0,0 0 1.010,3
06:12 11,2 7,5 9,6 78,0 13,4 248 - 0,0 0 1.010,4
06:11 11,2 7,5 9,6 78,0 13,0 248 - 0,0 0 1.010,5
06:10 11,3 7,6 9,7 78,0 12,6 248 - 0,0 0 1.010,4
06:09 11,2 7,5 9,6 78,0 12,4 248 16,1 0,0 0 1.010,3
06:08 11,2 7,5 9,6 77,9 12,4 248 15,6 0,0 0 1.010,4
06:07 11,2 7,4 9,5 77,3 12,6 248 - 0,0 0 1.010,3
06:06 11,2 7,6 9,6 78,6 12,7 248 16,1 0,0 0 1.010,4
06:05 11,2 7,7 9,7 79,0 12,6 248 - 0,0 0 1.010,5
06:04 11,2 7,7 9,7 79,0 12,5 248 - 0,0 0 1.010,4
06:03 11,2 7,7 9,7 79,0 12,4 248 - 0,0 0 1.010,4
06:02 11,2 7,7 9,7 79,0 12,2 248 - 0,0 0 1.010,5
06:01 11,2 7,7 9,7 79,0 12,1 249 - 0,0 0 1.010,5
06:00 11,2 7,7 9,7 79,0 12,1 249 15,6 0,0 0 1.010,5
 
05:59 11,2 7,7 9,7 79,0 12,1 248 - 0,0 0 1.010,5
05:58 11,2 7,7 9,7 79,0 12,3 248 - 0,0 0 1.010,4
05:57 11,2 7,7 9,7 79,0 12,4 248 - 0,0 0 1.010,3
05:56 11,2 7,7 9,7 79,2 12,6 247 - 0,0 0 1.010,4
05:55 11,2 7,8 9,7 79,7 12,7 247 - 0,0 0 1.010,5
05:54 11,2 7,7 9,7 79,0 12,7 247 - 0,0 0 1.010,5
05:53 11,2 7,7 9,7 79,0 12,7 246 - 0,0 0 1.010,5
05:52 11,2 7,7 9,7 79,0 12,6 246 - 0,0 0 1.010,5
05:51 11,2 7,5 9,6 78,1 12,6 246 - 0,0 0 1.010,3
05:50 11,2 7,5 9,6 77,8 12,8 246 16,1 0,0 0 1.010,3
05:49 11,2 7,4 9,5 77,4 13,1 246 - 0,0 0 1.010,3
05:48 11,2 7,5 9,6 78,0 13,2 247 - 0,0 0 1.010,3
05:47 11,2 7,4 9,5 77,4 13,2 247 16,5 0,0 0 1.010,2
05:46 11,1 7,5 9,5 78,5 13,3 247 17,0 0,0 0 1.010,2
05:45 11,2 7,7 9,7 79,0 13,3 248 16,5 0,0 0 1.010,3
05:44 11,2 7,7 9,7 78,8 13,1 248 - 0,0 0 1.010,3
05:43 11,2 7,6 9,6 78,4 12,7 248 16,1 0,0 0 1.010,2
05:42 11,1 7,6 9,6 79,0 12,4 248 17,0 0,0 0 1.010,2
05:41 11,1 7,6 9,6 79,0 12,2 249 17,0 0,0 0 1.010,2
05:40 11,1 7,6 9,6 79,0 12,0 249 - 0,0 0 1.010,3
05:39 11,1 7,6 9,6 79,0 11,9 249 - 0,0 0 1.010,3
05:38 11,0 7,4 9,4 78,6 11,8 249 - 0,0 0 1.010,2
05:37 10,9 7,3 9,3 78,5 11,9 250 - 0,0 0 1.010,2
05:35 10,9 7,2 9,3 78,0 11,9 250 - 0,0 0 1.010,2
05:34 10,9 7,4 9,4 78,8 11,8 250 - 0,0 0 1.010,3
05:33 10,9 7,4 9,4 79,1 11,6 250 14,8 0,0 0 1.010,3
05:32 10,9 7,5 9,4 79,7 11,3 250 14,8 0,0 0 1.010,3
05:31 10,9 7,4 9,4 79,0 11,0 250 - 0,0 0 1.010,4
05:30 10,9 7,3 9,3 78,4 10,6 249 - 0,0 0 1.010,3
05:29 11,0 7,4 9,4 78,7 10,3 249 - 0,0 0 1.010,4
05:28 10,9 7,4 9,4 79,0 10,2 249 - 0,0 0 1.010,3
05:27 10,9 7,2 9,3 78,1 10,2 249 - 0,0 0 1.010,3
05:26 10,9 7,2 9,3 78,0 10,4 249 - 0,0 0 1.010,4
05:25 10,9 7,2 9,3 78,0 10,5 249 13,9 0,0 0 1.010,4
05:24 10,9 7,3 9,3 78,6 10,6 250 - 0,0 0 1.010,3
05:23 11,0 7,5 9,5 79,0 10,7 250 - 0,0 0 1.010,3
05:22 11,0 7,3 9,4 78,2 10,8 250 - 0,0 0 1.010,3
05:21 10,9 7,2 9,3 78,0 10,9 251 - 0,0 0 1.010,3
05:20 10,9 7,2 9,2 77,7 10,9 251 - 0,0 0 1.010,3
05:19 10,9 7,1 9,2 77,5 10,8 251 - 0,0 0 1.010,3
05:18 11,0 7,3 9,4 78,0 10,7 251 - 0,0 0 1.010,4
05:17 11,0 7,2 9,3 77,3 10,7 250 - 0,0 0 1.010,4
05:16 11,0 7,0 9,2 76,2 10,7 250 - 0,0 0 1.010,3
05:15 10,9 7,0 9,2 76,8 10,8 249 14,8 0,0 0 1.010,3
05:14 10,9 6,9 9,1 76,4 11,0 249 14,3 0,0 0 1.010,3
05:13 10,9 6,9 9,1 76,6 11,2 248 15,2 0,0 0 1.010,3
05:12 10,9 6,8 9,1 76,0 11,3 248 14,8 0,0 0 1.010,4
05:11 10,9 6,8 9,1 76,0 11,4 247 14,8 0,0 0 1.010,5
05:10 10,9 7,0 9,2 76,8 11,4 247 - 0,0 0 1.010,5
05:09 10,9 6,8 9,1 76,0 11,5 246 - 0,0 0 1.010,6
05:08 10,9 6,8 9,1 76,0 11,4 245 - 0,0 0 1.010,6
05:07 10,9 6,8 9,0 75,6 11,3 245 - 0,0 0 1.010,5
05:06 10,9 6,8 9,0 75,6 11,2 244 14,8 0,0 0 1.010,5
05:05 10,9 6,8 9,1 76,0 11,2 243 14,8 0,0 0 1.010,7
05:04 10,8 6,6 8,9 75,1 10,7 209 14,8 0,0 0 1.010,6
05:03 10,8 6,5 8,9 75,0 12,6 240 - 0,0 0 1.010,5
05:02 10,8 6,5 8,9 75,0 12,0 265 - 0,0 0 1.010,7
05:01 10,8 6,5 8,9 75,0 11,2 222 - 0,0 0 1.010,7
05:00 10,9 6,6 9,0 75,0 11,1 246 - 0,0 0 1.010,7
 
04:59 10,9 6,6 9,0 75,0 10,3 250 - 0,0 0 1.010,7
04:58 10,9 6,5 8,9 74,1 10,9 259 - 0,0 0 1.010,5
04:57 10,9 6,6 9,0 75,0 11,9 227 - 0,0 0 1.010,6
04:56 10,9 6,6 9,0 75,0 10,6 246 - 0,0 0 1.010,6
04:55 10,9 6,5 8,9 74,5 10,9 208 - 0,0 0 1.010,5
04:54 10,9 6,6 8,9 74,7 12,2 220 - 0,0 0 1.010,5
04:53 10,9 6,6 9,0 75,0 11,7 256 - 0,0 0 1.010,5
04:52 10,9 6,6 9,0 75,0 12,4 235 - 0,0 0 1.010,5
04:51 10,9 6,6 9,0 75,0 11,6 248 - 0,0 0 1.010,4
04:50 10,8 6,5 8,9 75,0 11,5 254 - 0,0 0 1.010,5